Time,TemperatureF,DewpointF,PressureIn,WindDirection,WindDirectionDegrees,WindSpeedMPH,WindSpeedGustMPH,Humidity,HourlyPrecipIn,Conditions,Clouds,dailyrainin,SoftwareType,DateUTC
2013-05-02 00:00:00,30.2,3.9,30.44,South,187,0.0,2.7,32,0.00,,---,0.00,VWS V14.01,2013-05-02 06:00:00,
2013-05-02 00:01:00,30.2,3.9,30.44,South,184,0.0,0.0,32,0.00,,---,0.00,VWS V14.01,2013-05-02 06:01:00,
2013-05-02 00:02:00,30.2,3.9,30.44,South,184,0.0,0.0,32,0.00,,---,0.00,VWS V14.01,2013-05-02 06:02:00,
2013-05-02 00:05:00,30.0,3.8,30.44,South,184,0.0,0.0,32,0.00,,---,0.00,VWS V14.01,2013-05-02 06:05:00,
2013-05-02 00:07:00,29.8,3.6,30.44,South,184,0.0,0.0,32,0.00,,---,0.00,VWS V14.01,2013-05-02 06:07:00,
2013-05-02 00:10:00,30.0,4.4,30.44,South,171,2.7,3.6,33,0.00,,---,0.00,VWS V14.01,2013-05-02 06:10:00,
2013-05-02 00:12:00,30.0,4.4,30.44,South,178,2.7,3.6,33,0.00,,---,0.00,VWS V14.01,2013-05-02 06:12:00,
2013-05-02 00:15:00,30.2,3.9,30.44,South,172,2.7,3.1,32,0.00,,---,0.00,VWS V14.01,2013-05-02 06:15:00,
2013-05-02 00:17:00,30.4,4.1,30.44,South,183,2.2,4.0,32,0.00,,---,0.00,VWS V14.01,2013-05-02 06:17:00,
2013-05-02 00:18:00,30.4,4.1,30.44,South,183,2.2,4.0,32,0.00,,---,0.00,VWS V14.01,2013-05-02 06:18:00,
2013-05-02 00:20:00,30.4,4.1,30.44,South,183,0.0,4.0,32,0.00,,---,0.00,VWS V14.01,2013-05-02 06:20:00,
2013-05-02 00:21:00,30.4,4.1,30.44,South,183,0.0,4.0,32,0.00,,---,0.00,VWS V14.01,2013-05-02 06:21:00,
2013-05-02 00:22:00,30.4,4.1,30.44,South,183,0.0,4.0,32,0.00,,---,0.00,VWS V14.01,2013-05-02 06:22:00,
2013-05-02 00:23:00,30.4,4.1,30.44,South,183,0.0,4.0,32,0.00,,---,0.00,VWS V14.01,2013-05-02 06:23:00,
2013-05-02 00:25:00,30.0,3.8,30.44,South,183,0.0,4.0,32,0.00,,---,0.00,VWS V14.01,2013-05-02 06:25:00,
2013-05-02 00:26:00,30.0,3.8,30.44,South,183,0.0,4.0,32,0.00,,---,0.00,VWS V14.01,2013-05-02 06:26:00,
2013-05-02 00:27:00,29.8,3.6,30.44,South,183,0.0,4.0,32,0.00,,---,0.00,VWS V14.01,2013-05-02 06:27:00,
2013-05-02 00:28:00,29.8,3.6,30.44,South,183,0.0,4.0,32,0.00,,---,0.00,VWS V14.01,2013-05-02 06:28:00,
2013-05-02 00:30:00,29.5,3.9,30.44,South,183,0.0,0.0,33,0.00,,---,0.00,VWS V14.01,2013-05-02 06:30:00,
2013-05-02 00:31:00,29.5,3.9,30.44,South,183,2.7,2.7,33,0.00,,---,0.00,VWS V14.01,2013-05-02 06:31:00,
2013-05-02 00:33:00,29.5,3.9,30.44,South,170,2.7,3.1,33,0.00,,---,0.00,VWS V14.01,2013-05-02 06:33:00,
2013-05-02 00:35:00,29.5,3.9,30.44,South,173,0.0,3.1,33,0.00,,---,0.00,VWS V14.01,2013-05-02 06:35:00,
2013-05-02 00:36:00,29.5,3.9,30.44,South,173,2.2,3.1,33,0.00,,---,0.00,VWS V14.01,2013-05-02 06:36:00,
2013-05-02 00:38:00,29.7,4.1,30.44,South,177,2.7,3.1,33,0.00,,---,0.00,VWS V14.01,2013-05-02 06:38:00,
2013-05-02 00:40:00,29.7,4.1,30.44,South,177,2.7,3.1,33,0.00,,---,0.00,VWS V14.01,2013-05-02 06:40:00,
2013-05-02 00:41:00,29.8,4.2,30.44,South,177,0.0,3.1,33,0.00,,---,0.00,VWS V14.01,2013-05-02 06:41:00,
2013-05-02 00:43:00,29.8,4.2,30.44,South,179,3.6,3.6,33,0.00,,---,0.00,VWS V14.01,2013-05-02 06:43:00,
2013-05-02 00:44:00,29.8,4.2,30.44,South,189,3.6,3.6,33,0.00,,---,0.00,VWS V14.01,2013-05-02 06:44:00,
2013-05-02 00:45:00,30.0,4.4,30.44,SSW,194,3.6,4.5,33,0.00,,---,0.00,VWS V14.01,2013-05-02 06:45:00,
2013-05-02 00:46:00,30.0,4.4,30.44,SSW,197,4.0,4.5,33,0.00,,---,0.00,VWS V14.01,2013-05-02 06:46:00,
2013-05-02 00:48:00,30.2,4.6,30.44,SSW,196,3.1,4.5,33,0.00,,---,0.00,VWS V14.01,2013-05-02 06:48:00,
2013-05-02 00:50:00,30.2,4.6,30.44,SSW,193,3.6,4.5,33,0.00,,---,0.00,VWS V14.01,2013-05-02 06:50:00,
2013-05-02 00:51:00,30.4,4.7,30.44,SSW,194,3.6,4.5,33,0.00,,---,0.00,VWS V14.01,2013-05-02 06:51:00,
2013-05-02 00:53:00,30.4,4.7,30.44,SSW,195,2.7,5.8,33,0.00,,---,0.00,VWS V14.01,2013-05-02 06:53:00,
2013-05-02 00:55:00,30.6,4.2,30.44,SSW,195,4.9,5.8,32,0.00,,---,0.00,VWS V14.01,2013-05-02 06:55:00,
2013-05-02 00:56:00,30.6,4.2,30.44,SSW,194,5.8,5.8,32,0.00,,---,0.00,VWS V14.01,2013-05-02 06:56:00,
2013-05-02 00:58:00,30.7,4.4,30.44,SSW,195,4.9,5.8,32,0.00,,---,0.00,VWS V14.01,2013-05-02 06:58:00,
2013-05-02 01:00:00,30.7,4.4,30.44,SSW,195,3.6,4.9,32,0.00,,---,0.00,VWS V14.01,2013-05-02 07:00:00,
2013-05-02 01:01:00,30.7,4.4,30.44,SSW,193,4.0,4.9,32,0.00,,---,0.00,VWS V14.01,2013-05-02 07:01:00,
2013-05-02 01:02:00,30.7,4.4,30.44,SSW,193,2.2,4.9,32,0.00,,---,0.00,VWS V14.01,2013-05-02 07:02:00,
2013-05-02 01:03:00,30.7,4.4,30.44,SSW,193,0.0,4.9,32,0.00,,---,0.00,VWS V14.01,2013-05-02 07:03:00,
2013-05-02 01:05:00,30.7,4.4,30.44,SSW,193,0.0,4.9,32,0.00,,---,0.00,VWS V14.01,2013-05-02 07:05:00,
2013-05-02 01:06:00,30.7,4.4,30.44,SSW,193,0.0,4.9,32,0.00,,---,0.00,VWS V14.01,2013-05-02 07:06:00,
2013-05-02 01:07:00,30.7,4.4,30.44,SSW,193,2.2,4.9,32,0.00,,---,0.00,VWS V14.01,2013-05-02 07:07:00,
2013-05-02 01:09:00,30.4,4.7,30.44,South,185,2.2,4.9,33,0.00,,---,0.00,VWS V14.01,2013-05-02 07:09:00,
2013-05-02 01:11:00,30.2,4.6,30.44,South,181,3.1,4.9,33,0.00,,---,0.00,VWS V14.01,2013-05-02 07:11:00,
2013-05-02 01:12:00,30.2,4.6,30.44,South,185,3.6,4.9,33,0.00,,---,0.00,VWS V14.01,2013-05-02 07:12:00,
2013-05-02 01:15:00,30.0,4.4,30.44,South,191,2.7,2.7,33,0.00,,---,0.00,VWS V14.01,2013-05-02 07:15:00,
2013-05-02 01:16:00,30.0,4.4,30.44,SSW,192,4.0,4.0,33,0.00,,---,0.00,VWS V14.01,2013-05-02 07:16:00,
2013-05-02 01:17:00,30.0,4.4,30.44,South,191,2.2,4.0,33,0.00,,---,0.00,VWS V14.01,2013-05-02 07:17:00,
2013-05-02 01:20:00,29.8,4.2,30.44,South,187,0.0,4.0,33,0.00,,---,0.00,VWS V14.01,2013-05-02 07:20:00,
2013-05-02 01:21:00,29.8,4.2,30.44,South,187,0.0,4.0,33,0.00,,---,0.00,VWS V14.01,2013-05-02 07:21:00,
2013-05-02 01:22:00,29.8,4.2,30.44,South,190,3.6,4.0,33,0.00,,---,0.00,VWS V14.01,2013-05-02 07:22:00,
2013-05-02 01:25:00,29.7,4.7,30.44,SSW,199,3.1,4.9,34,0.00,,---,0.00,VWS V14.01,2013-05-02 07:25:00,
2013-05-02 01:26:00,29.8,4.9,30.44,SSW,198,3.1,4.9,34,0.00,,---,0.00,VWS V14.01,2013-05-02 07:26:00,
2013-05-02 01:27:00,29.8,4.9,30.44,SSW,198,3.1,4.9,34,0.00,,---,0.00,VWS V14.01,2013-05-02 07:27:00,
2013-05-02 01:30:00,29.8,4.9,30.44,SSW,195,0.0,2.7,34,0.00,,---,0.00,VWS V14.01,2013-05-02 07:30:00,
2013-05-02 01:31:00,29.8,4.9,30.44,SSW,200,3.6,4.0,34,0.00,,---,0.00,VWS V14.01,2013-05-02 07:31:00,
2013-05-02 01:32:00,29.8,4.9,30.44,SSW,200,3.1,4.0,34,0.00,,---,0.00,VWS V14.01,2013-05-02 07:32:00,
2013-05-02 01:33:00,29.8,4.9,30.44,SSW,200,0.0,4.0,34,0.00,,---,0.00,VWS V14.01,2013-05-02 07:33:00,
2013-05-02 01:35:00,29.7,4.7,30.44,South,179,2.7,4.0,34,0.00,,---,0.00,VWS V14.01,2013-05-02 07:35:00,
2013-05-02 01:37:00,29.7,4.7,30.44,South,172,2.7,4.0,34,0.00,,---,0.00,VWS V14.01,2013-05-02 07:37:00,
2013-05-02 01:38:00,29.7,4.7,30.44,South,172,3.1,4.0,34,0.00,,---,0.00,VWS V14.01,2013-05-02 07:38:00,
2013-05-02 01:41:00,29.7,4.7,30.44,South,182,2.2,4.0,34,0.00,,---,0.00,VWS V14.01,2013-05-02 07:41:00,
2013-05-02 01:42:00,29.7,4.7,30.44,South,182,0.0,4.0,34,0.00,,---,0.00,VWS V14.01,2013-05-02 07:42:00,
2013-05-02 01:43:00,29.7,4.7,30.44,South,182,0.0,4.0,34,0.00,,---,0.00,VWS V14.01,2013-05-02 07:43:00,
2013-05-02 01:46:00,30.0,5.7,30.44,South,191,3.1,3.1,35,0.00,,---,0.00,VWS V14.01,2013-05-02 07:46:00,
2013-05-02 01:48:00,30.2,5.9,30.44,South,191,3.6,3.6,35,0.00,,---,0.00,VWS V14.01,2013-05-02 07:48:00,
2013-05-02 01:49:00,30.6,5.5,30.44,South,190,2.7,3.6,34,0.00,,---,0.00,VWS V14.01,2013-05-02 07:49:00,
2013-05-02 01:51:00,30.9,5.9,30.44,South,190,2.2,3.6,34,0.00,,---,0.00,VWS V14.01,2013-05-02 07:51:00,
2013-05-02 01:53:00,31.1,6.0,30.44,South,182,2.7,3.6,34,0.00,,---,0.00,VWS V14.01,2013-05-02 07:53:00,
2013-05-02 01:54:00,30.9,5.9,30.44,South,182,2.2,3.6,34,0.00,,---,0.00,VWS V14.01,2013-05-02 07:54:00,
2013-05-02 01:56:00,30.7,5.7,30.44,South,182,2.2,3.6,34,0.00,,---,0.00,VWS V14.01,2013-05-02 07:56:00,
2013-05-02 01:58:00,30.6,5.5,30.44,South,182,2.2,3.6,34,0.00,,---,0.00,VWS V14.01,2013-05-02 07:58:00,
2013-05-02 01:59:00,30.6,5.5,30.44,South,182,2.2,3.6,34,0.00,,---,0.00,VWS V14.01,2013-05-02 07:59:00,
2013-05-02 02:01:00,30.4,5.4,30.44,South,185,2.7,3.6,34,0.00,,---,0.00,VWS V14.01,2013-05-02 08:01:00,
2013-05-02 02:03:00,30.4,5.4,30.44,South,186,2.7,3.6,34,0.00,,---,0.00,VWS V14.01,2013-05-02 08:03:00,
2013-05-02 02:04:00,30.6,5.5,30.44,South,191,3.1,3.6,34,0.00,,---,0.00,VWS V14.01,2013-05-02 08:04:00,
2013-05-02 02:06:00,30.7,5.7,30.44,South,191,2.7,3.6,34,0.00,,---,0.00,VWS V14.01,2013-05-02 08:06:00,
2013-05-02 02:07:00,30.7,5.7,30.44,South,191,2.2,3.6,34,0.00,,---,0.00,VWS V14.01,2013-05-02 08:07:00,
2013-05-02 02:09:00,30.7,5.7,30.44,South,190,2.7,3.6,34,0.00,,---,0.00,VWS V14.01,2013-05-02 08:09:00,
2013-05-02 02:12:00,30.4,5.4,30.44,South,190,2.7,3.6,34,0.00,,---,0.00,VWS V14.01,2013-05-02 08:12:00,
2013-05-02 02:13:00,30.4,5.4,30.44,South,190,2.2,3.6,34,0.00,,---,0.00,VWS V14.01,2013-05-02 08:13:00,
2013-05-02 02:14:00,30.4,5.4,30.44,South,188,2.7,3.6,34,0.00,,---,0.00,VWS V14.01,2013-05-02 08:14:00,
2013-05-02 02:17:00,30.6,5.5,30.44,South,187,3.1,4.0,34,0.00,,---,0.00,VWS V14.01,2013-05-02 08:17:00,
2013-05-02 02:18:00,30.6,5.5,30.44,South,187,2.7,4.0,34,0.00,,---,0.00,VWS V14.01,2013-05-02 08:18:00,
2013-05-02 02:19:00,30.6,5.5,30.44,South,187,2.2,4.0,34,0.00,,---,0.00,VWS V14.01,2013-05-02 08:19:00,
2013-05-02 02:20:00,30.7,5.7,30.44,South,187,0.0,4.0,34,0.00,,---,0.00,VWS V14.01,2013-05-02 08:20:00,
2013-05-02 02:22:00,30.6,5.5,30.44,South,183,2.2,4.0,34,0.00,,---,0.00,VWS V14.01,2013-05-02 08:22:00,
2013-05-02 02:24:00,30.6,5.5,30.44,South,181,2.7,4.0,34,0.00,,---,0.00,VWS V14.01,2013-05-02 08:24:00,
2013-05-02 02:25:00,30.6,5.5,30.44,South,181,2.7,4.0,34,0.00,,---,0.00,VWS V14.01,2013-05-02 08:25:00,
2013-05-02 02:28:00,30.2,5.2,30.44,South,181,0.0,4.0,34,0.00,,---,0.00,VWS V14.01,2013-05-02 08:28:00,
2013-05-02 02:29:00,30.0,5.7,30.44,South,181,0.0,4.0,35,0.00,,---,0.00,VWS V14.01,2013-05-02 08:29:00,
2013-05-02 02:30:00,30.0,5.7,30.44,South,181,0.0,4.0,35,0.00,,---,0.00,VWS V14.01,2013-05-02 08:30:00,
2013-05-02 02:33:00,29.7,5.4,30.44,South,181,0.0,0.0,35,0.00,,---,0.00,VWS V14.01,2013-05-02 08:33:00,
2013-05-02 02:35:00,29.5,5.2,30.44,South,180,2.7,3.1,35,0.00,,---,0.00,VWS V14.01,2013-05-02 08:35:00,
2013-05-02 02:38:00,29.5,5.2,30.44,South,190,3.6,3.6,35,0.00,,---,0.00,VWS V14.01,2013-05-02 08:38:00,
2013-05-02 02:40:00,29.8,5.5,30.44,South,190,2.7,4.0,35,0.00,,---,0.00,VWS V14.01,2013-05-02 08:40:00,
2013-05-02 02:41:00,29.8,5.5,30.44,South,190,3.1,4.0,35,0.00,,---,0.00,VWS V14.01,2013-05-02 08:41:00,
2013-05-02 02:43:00,30.2,5.9,30.44,South,191,4.0,4.0,35,0.00,,---,0.00,VWS V14.01,2013-05-02 08:43:00,
2013-05-02 02:45:00,30.2,5.9,30.44,SSW,196,3.1,4.0,35,0.00,,---,0.00,VWS V14.01,2013-05-02 08:45:00,
2013-05-02 02:46:00,30.2,5.9,30.44,SSW,196,3.6,3.6,35,0.00,,---,0.00,VWS V14.01,2013-05-02 08:46:00,
2013-05-02 02:48:00,30.4,6.0,30.44,SSW,194,2.2,3.6,35,0.00,,---,0.00,VWS V14.01,2013-05-02 08:48:00,
2013-05-02 02:50:00,30.2,5.9,30.44,SSW,194,2.7,3.6,35,0.00,,---,0.00,VWS V14.01,2013-05-02 08:50:00,
2013-05-02 02:51:00,30.2,5.9,30.44,South,191,2.2,3.6,35,0.00,,---,0.00,VWS V14.01,2013-05-02 08:51:00,
2013-05-02 02:53:00,30.2,5.9,30.44,South,191,2.2,3.6,35,0.00,,---,0.00,VWS V14.01,2013-05-02 08:53:00,
2013-05-02 02:55:00,30.0,5.7,30.44,South,181,2.7,3.6,35,0.00,,---,0.00,VWS V14.01,2013-05-02 08:55:00,
2013-05-02 02:56:00,30.0,5.7,30.44,South,181,2.7,3.6,35,0.00,,---,0.00,VWS V14.01,2013-05-02 08:56:00,
2013-05-02 02:58:00,29.8,5.5,30.44,SSW,192,4.0,4.0,35,0.00,,---,0.00,VWS V14.01,2013-05-02 08:58:00,
2013-05-02 03:00:00,30.0,5.7,30.44,SSW,193,3.1,4.0,35,0.00,,---,0.00,VWS V14.01,2013-05-02 09:00:00,
2013-05-02 03:01:00,30.0,5.7,30.44,SSW,193,2.7,4.0,35,0.00,,---,0.00,VWS V14.01,2013-05-02 09:01:00,
2013-05-02 03:04:00,30.2,5.9,30.44,SSW,193,3.6,4.0,35,0.00,,---,0.00,VWS V14.01,2013-05-02 09:04:00,
2013-05-02 03:06:00,30.4,6.0,30.44,SSW,193,2.7,4.0,35,0.00,,---,0.00,VWS V14.01,2013-05-02 09:06:00,
2013-05-02 03:09:00,30.6,5.5,30.44,SSW,194,3.1,4.0,34,0.00,,---,0.00,VWS V14.01,2013-05-02 09:09:00,
2013-05-02 03:11:00,30.6,5.5,30.44,SSW,192,3.1,4.0,34,0.00,,---,0.00,VWS V14.01,2013-05-02 09:11:00,
2013-05-02 03:12:00,30.6,5.5,30.44,South,181,2.7,4.0,34,0.00,,---,0.00,VWS V14.01,2013-05-02 09:12:00,
2013-05-02 03:15:00,30.6,5.5,30.44,SSW,192,3.6,3.6,34,0.00,,---,0.00,VWS V14.01,2013-05-02 09:15:00,
2013-05-02 03:16:00,30.6,5.5,30.44,SSW,193,4.0,4.0,34,0.00,,---,0.00,VWS V14.01,2013-05-02 09:16:00,
2013-05-02 03:17:00,30.6,5.5,30.44,SSW,197,4.0,5.4,34,0.00,,---,0.00,VWS V14.01,2013-05-02 09:17:00,
2013-05-02 03:20:00,30.7,5.7,30.44,SSW,198,5.8,6.3,34,0.00,,---,0.00,VWS V14.01,2013-05-02 09:20:00,
2013-05-02 03:21:00,30.9,5.9,30.44,SSW,195,7.6,7.6,34,0.00,,---,0.00,VWS V14.01,2013-05-02 09:21:00,
2013-05-02 03:22:00,30.9,5.9,30.44,SSW,197,6.3,7.6,34,0.00,,---,0.00,VWS V14.01,2013-05-02 09:22:00,
2013-05-02 03:23:00,31.1,6.0,30.44,SSW,196,5.4,7.6,34,0.00,,---,0.00,VWS V14.01,2013-05-02 09:23:00,
2013-05-02 03:25:00,31.1,6.0,30.44,SSW,198,5.8,7.6,34,0.00,,---,0.00,VWS V14.01,2013-05-02 09:25:00,
2013-05-02 03:27:00,31.3,6.2,30.44,SSW,203,5.8,7.6,34,0.00,,---,0.00,VWS V14.01,2013-05-02 09:27:00,
2013-05-02 03:28:00,31.3,6.2,30.44,SSW,196,5.8,7.6,34,0.00,,---,0.00,VWS V14.01,2013-05-02 09:28:00,
2013-05-02 03:30:00,31.3,6.2,30.44,SSW,198,4.9,5.8,34,0.00,,---,0.00,VWS V14.01,2013-05-02 09:30:00,
2013-05-02 03:32:00,31.3,6.2,30.44,SSW,193,7.2,7.2,34,0.00,,---,0.00,VWS V14.01,2013-05-02 09:32:00,
2013-05-02 03:33:00,31.3,6.2,30.44,SSW,204,5.4,7.2,34,0.00,,---,0.00,VWS V14.01,2013-05-02 09:33:00,
2013-05-02 03:35:00,31.5,6.3,30.44,SSW,197,5.4,7.2,34,0.00,,---,0.00,VWS V14.01,2013-05-02 09:35:00,
2013-05-02 03:37:00,31.5,6.3,30.44,SSW,198,4.0,7.2,34,0.00,,---,0.00,VWS V14.01,2013-05-02 09:37:00,
2013-05-02 03:38:00,31.5,6.3,30.44,SSW,193,5.4,7.2,34,0.00,,---,0.00,VWS V14.01,2013-05-02 09:38:00,
2013-05-02 03:40:00,31.5,6.3,30.44,SSW,196,5.8,8.1,34,0.00,,---,0.00,VWS V14.01,2013-05-02 09:40:00,
2013-05-02 03:42:00,31.5,6.3,30.44,SSW,200,4.9,8.1,34,0.00,,---,0.00,VWS V14.01,2013-05-02 09:42:00,
2013-05-02 03:43:00,31.5,6.3,30.44,South,191,5.8,8.1,34,0.00,,---,0.00,VWS V14.01,2013-05-02 09:43:00,
2013-05-02 03:45:00,31.6,6.5,30.44,SSW,201,4.9,5.4,34,0.00,,---,0.00,VWS V14.01,2013-05-02 09:45:00,
2013-05-02 03:47:00,31.5,6.3,30.44,SSW,196,5.4,6.7,34,0.00,,---,0.00,VWS V14.01,2013-05-02 09:47:00,
2013-05-02 03:48:00,31.5,6.3,30.44,SSW,192,5.4,6.7,34,0.00,,---,0.00,VWS V14.01,2013-05-02 09:48:00,
2013-05-02 03:50:00,31.5,6.3,30.44,SSW,198,5.8,7.6,34,0.00,,---,0.00,VWS V14.01,2013-05-02 09:50:00,
2013-05-02 03:52:00,31.5,6.3,30.44,SSW,196,5.4,7.6,34,0.00,,---,0.00,VWS V14.01,2013-05-02 09:52:00,
2013-05-02 03:53:00,31.5,6.3,30.44,SSW,197,5.8,7.6,34,0.00,,---,0.00,VWS V14.01,2013-05-02 09:53:00,
2013-05-02 03:56:00,31.5,6.3,30.44,SSW,199,5.4,7.6,34,0.00,,---,0.00,VWS V14.01,2013-05-02 09:56:00,
2013-05-02 03:58:00,31.3,6.2,30.44,SSW,198,4.9,7.6,34,0.00,,---,0.00,VWS V14.01,2013-05-02 09:58:00,
2013-05-02 03:59:00,31.3,6.2,30.44,SSW,196,4.0,7.6,34,0.00,,---,0.00,VWS V14.01,2013-05-02 09:59:00,
2013-05-02 04:01:00,31.1,6.0,30.41,SSW,198,4.0,5.8,34,0.00,,---,0.00,VWS V14.01,2013-05-02 10:01:00,
2013-05-02 04:03:00,31.1,6.0,30.41,SSW,195,3.6,5.8,34,0.00,,---,0.00,VWS V14.01,2013-05-02 10:03:00,
2013-05-02 04:04:00,31.1,6.0,30.41,SSW,193,5.4,5.8,34,0.00,,---,0.00,VWS V14.01,2013-05-02 10:04:00,
2013-05-02 04:06:00,30.9,5.9,30.41,SSW,197,3.6,5.8,34,0.00,,---,0.00,VWS V14.01,2013-05-02 10:06:00,
2013-05-02 04:08:00,30.7,5.7,30.41,South,191,4.0,5.8,34,0.00,,---,0.00,VWS V14.01,2013-05-02 10:08:00,
2013-05-02 04:09:00,30.6,5.5,30.41,SSW,194,4.5,5.8,34,0.00,,---,0.00,VWS V14.01,2013-05-02 10:09:00,
2013-05-02 04:12:00,30.4,5.4,30.41,SSW,198,5.4,5.8,34,0.00,,---,0.00,VWS V14.01,2013-05-02 10:12:00,
2013-05-02 04:13:00,30.2,5.2,30.41,SSW,196,5.4,5.8,34,0.00,,---,0.00,VWS V14.01,2013-05-02 10:13:00,
2013-05-02 04:14:00,30.2,5.2,30.41,SSW,198,4.9,5.8,34,0.00,,---,0.00,VWS V14.01,2013-05-02 10:14:00,
2013-05-02 04:15:00,30.2,5.9,30.41,SSW,196,5.4,5.4,35,0.00,,---,0.00,VWS V14.01,2013-05-02 10:15:00,
2013-05-02 04:17:00,30.4,5.4,30.44,SSW,197,4.9,5.4,34,0.00,,---,0.00,VWS V14.01,2013-05-02 10:17:00,
2013-05-02 04:18:00,30.4,5.4,30.44,SSW,197,4.5,5.4,34,0.00,,---,0.00,VWS V14.01,2013-05-02 10:18:00,
2013-05-02 04:19:00,30.4,5.4,30.44,SSW,199,4.9,5.4,34,0.00,,---,0.00,VWS V14.01,2013-05-02 10:19:00,
2013-05-02 04:20:00,30.4,5.4,30.44,SSW,198,4.9,5.4,34,0.00,,---,0.00,VWS V14.01,2013-05-02 10:20:00,
2013-05-02 04:22:00,30.4,5.4,30.44,SSW,196,5.4,5.8,34,0.00,,---,0.00,VWS V14.01,2013-05-02 10:22:00,
2013-05-02 04:23:00,30.6,5.5,30.44,SSW,196,4.0,5.8,34,0.00,,---,0.00,VWS V14.01,2013-05-02 10:23:00,
2013-05-02 04:24:00,30.6,5.5,30.44,SSW,197,4.9,5.8,34,0.00,,---,0.00,VWS V14.01,2013-05-02 10:24:00,
2013-05-02 04:26:00,30.6,5.5,30.44,SSW,201,5.4,5.8,34,0.00,,---,0.00,VWS V14.01,2013-05-02 10:26:00,
2013-05-02 04:27:00,30.6,5.5,30.44,SSW,196,3.6,5.8,34,0.00,,---,0.00,VWS V14.01,2013-05-02 10:27:00,
2013-05-02 04:28:00,30.4,5.4,30.44,SSW,193,4.9,5.8,34,0.00,,---,0.00,VWS V14.01,2013-05-02 10:28:00,
2013-05-02 04:29:00,30.4,5.4,30.44,SSW,193,6.3,6.3,34,0.00,,---,0.00,VWS V14.01,2013-05-02 10:29:00,
2013-05-02 04:30:00,30.4,5.4,30.44,SSW,199,5.4,6.3,34,0.00,,---,0.00,VWS V14.01,2013-05-02 10:30:00,
2013-05-02 04:31:00,30.4,5.4,30.44,SSW,197,4.9,6.3,34,0.00,,---,0.00,VWS V14.01,2013-05-02 10:31:00,
2013-05-02 04:33:00,30.4,5.4,30.44,SSW,198,5.8,6.3,34,0.00,,---,0.00,VWS V14.01,2013-05-02 10:33:00,
2013-05-02 04:34:00,30.4,5.4,30.44,SSW,197,4.0,6.3,34,0.00,,---,0.00,VWS V14.01,2013-05-02 10:34:00,
2013-05-02 04:36:00,30.2,5.9,30.44,SSW,198,5.4,6.3,35,0.00,,---,0.00,VWS V14.01,2013-05-02 10:36:00,
2013-05-02 04:38:00,30.2,5.9,30.44,SSW,195,4.0,6.3,35,0.00,,---,0.00,VWS V14.01,2013-05-02 10:38:00,
2013-05-02 04:39:00,30.2,5.9,30.44,SSW,197,5.4,6.3,35,0.00,,---,0.00,VWS V14.01,2013-05-02 10:39:00,
2013-05-02 04:40:00,30.2,5.9,30.44,SSW,195,5.8,6.3,35,0.00,,---,0.00,VWS V14.01,2013-05-02 10:40:00,
2013-05-02 04:41:00,30.4,5.4,30.44,SSW,197,5.4,6.3,34,0.00,,---,0.00,VWS V14.01,2013-05-02 10:41:00,
2013-05-02 04:43:00,30.4,5.4,30.44,SSW,196,5.4,6.3,34,0.00,,---,0.00,VWS V14.01,2013-05-02 10:43:00,
2013-05-02 04:44:00,30.4,5.4,30.44,SSW,196,4.9,6.3,34,0.00,,---,0.00,VWS V14.01,2013-05-02 10:44:00,
2013-05-02 04:45:00,30.6,5.5,30.44,SSW,193,5.4,5.4,34,0.00,,---,0.00,VWS V14.01,2013-05-02 10:45:00,
2013-05-02 04:46:00,30.6,5.5,30.41,SSW,197,4.0,5.4,34,0.00,,---,0.00,VWS V14.01,2013-05-02 10:46:00,
2013-05-02 04:47:00,30.6,5.5,30.41,SSW,198,3.6,5.4,34,0.00,,---,0.00,VWS V14.01,2013-05-02 10:47:00,
2013-05-02 04:49:00,30.7,5.7,30.41,SSW,199,4.5,5.4,34,0.00,,---,0.00,VWS V14.01,2013-05-02 10:49:00,
2013-05-02 04:50:00,30.7,6.3,30.41,SSW,198,5.4,5.8,35,0.00,,---,0.00,VWS V14.01,2013-05-02 10:50:00,
2013-05-02 04:51:00,30.6,5.5,30.41,SSW,197,4.9,5.8,34,0.00,,---,0.00,VWS V14.01,2013-05-02 10:51:00,
2013-05-02 04:52:00,30.6,5.5,30.41,SSW,192,5.4,5.8,34,0.00,,---,0.00,VWS V14.01,2013-05-02 10:52:00,
2013-05-02 04:54:00,30.7,5.7,30.41,SSW,194,5.8,6.3,34,0.00,,---,0.00,VWS V14.01,2013-05-02 10:54:00,
2013-05-02 04:55:00,30.9,5.9,30.41,SSW,195,5.4,6.3,34,0.00,,---,0.00,VWS V14.01,2013-05-02 10:55:00,
2013-05-02 04:56:00,30.9,5.9,30.41,SSW,199,4.9,6.3,34,0.00,,---,0.00,VWS V14.01,2013-05-02 10:56:00,
2013-05-02 04:57:00,31.1,6.0,30.41,SSW,197,5.8,6.3,34,0.00,,---,0.00,VWS V14.01,2013-05-02 10:57:00,
2013-05-02 04:59:00,31.3,6.2,30.41,SSW,194,5.4,6.3,34,0.00,,---,0.00,VWS V14.01,2013-05-02 10:59:00,
2013-05-02 05:00:00,31.3,6.2,30.41,SSW,194,5.4,6.3,34,0.00,,---,0.00,VWS V14.01,2013-05-02 11:00:00,
2013-05-02 05:02:00,31.5,6.3,30.41,SSW,200,3.6,5.8,34,0.00,,---,0.00,VWS V14.01,2013-05-02 11:02:00,
2013-05-02 05:04:00,31.6,6.5,30.41,SSW,198,4.0,6.3,34,0.00,,---,0.00,VWS V14.01,2013-05-02 11:04:00,
2013-05-02 05:05:00,31.6,6.5,30.41,SSW,198,4.0,6.3,34,0.00,,---,0.00,VWS V14.01,2013-05-02 11:05:00,
2013-05-02 05:06:00,31.6,6.5,30.41,SSW,197,4.0,6.3,34,0.00,,---,0.00,VWS V14.01,2013-05-02 11:06:00,
2013-05-02 05:07:00,31.6,6.5,30.41,SSW,195,5.4,6.3,34,0.00,,---,0.00,VWS V14.01,2013-05-02 11:07:00,
2013-05-02 05:10:00,31.6,6.5,30.41,SSW,199,4.0,6.3,34,0.00,,---,0.00,VWS V14.01,2013-05-02 11:10:00,
2013-05-02 05:11:00,31.5,6.3,30.41,SSW,195,6.3,6.3,34,0.00,,---,0.00,VWS V14.01,2013-05-02 11:11:00,
2013-05-02 05:12:00,31.5,6.3,30.41,SSW,195,5.4,6.3,34,0.00,,---,0.00,VWS V14.01,2013-05-02 11:12:00,
2013-05-02 05:15:00,31.6,6.5,30.41,SSW,199,5.4,6.3,34,0.00,,---,0.00,VWS V14.01,2013-05-02 11:15:00,
2013-05-02 05:16:00,31.5,6.3,30.41,SSW,198,3.6,4.0,34,0.00,,---,0.00,VWS V14.01,2013-05-02 11:16:00,
2013-05-02 05:17:00,31.5,6.3,30.41,SSW,198,5.4,5.4,34,0.00,,---,0.00,VWS V14.01,2013-05-02 11:17:00,
2013-05-02 05:18:00,31.5,6.3,30.41,SSW,197,4.9,5.4,34,0.00,,---,0.00,VWS V14.01,2013-05-02 11:18:00,
2013-05-02 05:20:00,31.3,6.2,30.41,SSW,198,5.8,5.8,34,0.00,,---,0.00,VWS V14.01,2013-05-02 11:20:00,
2013-05-02 05:21:00,31.3,6.2,30.41,SSW,198,5.4,6.3,34,0.00,,---,0.00,VWS V14.01,2013-05-02 11:21:00,
2013-05-02 05:22:00,31.3,6.2,30.41,SSW,198,5.8,6.3,34,0.00,,---,0.00,VWS V14.01,2013-05-02 11:22:00,
2013-05-02 05:23:00,31.5,6.3,30.41,SSW,198,5.4,6.3,34,0.00,,---,0.00,VWS V14.01,2013-05-02 11:23:00,
2013-05-02 05:25:00,31.6,6.5,30.41,SSW,202,5.4,6.3,34,0.00,,---,0.00,VWS V14.01,2013-05-02 11:25:00,
2013-05-02 05:26:00,31.6,6.5,30.41,SSW,196,5.4,6.3,34,0.00,,---,0.00,VWS V14.01,2013-05-02 11:26:00,
2013-05-02 05:27:00,31.6,6.5,30.41,SSW,193,4.9,6.3,34,0.00,,---,0.00,VWS V14.01,2013-05-02 11:27:00,
2013-05-02 05:28:00,31.6,6.5,30.41,SSW,196,5.4,6.3,34,0.00,,---,0.00,VWS V14.01,2013-05-02 11:28:00,
2013-05-02 05:30:00,31.8,6.7,30.41,SSW,202,4.9,5.8,34,0.00,,---,0.00,VWS V14.01,2013-05-02 11:30:00,
2013-05-02 05:31:00,31.8,6.7,30.41,SSW,206,4.9,5.8,34,0.00,,---,0.00,VWS V14.01,2013-05-02 11:31:00,
2013-05-02 05:33:00,31.6,6.5,30.41,SSW,202,4.9,5.8,34,0.00,,---,0.00,VWS V14.01,2013-05-02 11:33:00,
2013-05-02 05:35:00,31.6,6.5,30.41,South,190,5.4,6.3,34,0.00,,---,0.00,VWS V14.01,2013-05-02 11:35:00,
2013-05-02 05:36:00,31.5,6.3,30.41,SSW,198,5.8,7.6,34,0.00,,---,0.00,VWS V14.01,2013-05-02 11:36:00,
2013-05-02 05:38:00,31.5,6.3,30.41,SSW,195,5.4,7.6,34,0.00,,---,0.00,VWS V14.01,2013-05-02 11:38:00,
2013-05-02 05:40:00,31.5,6.3,30.41,SSW,198,5.8,7.6,34,0.00,,---,0.00,VWS V14.01,2013-05-02 11:40:00,
2013-05-02 05:41:00,31.5,6.3,30.41,SSW,194,5.4,7.6,34,0.00,,---,0.00,VWS V14.01,2013-05-02 11:41:00,
2013-05-02 05:43:00,31.5,6.3,30.41,SSW,196,5.4,7.6,34,0.00,,---,0.00,VWS V14.01,2013-05-02 11:43:00,
2013-05-02 05:45:00,31.3,6.2,30.41,SSW,196,4.9,6.3,34,0.00,,---,0.00,VWS V14.01,2013-05-02 11:45:00,
2013-05-02 05:46:00,31.1,6.0,30.41,SSW,198,5.4,6.3,34,0.00,,---,0.00,VWS V14.01,2013-05-02 11:46:00,
2013-05-02 05:48:00,31.1,6.0,30.41,SSW,197,4.0,6.3,34,0.00,,---,0.00,VWS V14.01,2013-05-02 11:48:00,
2013-05-02 05:50:00,30.7,5.7,30.41,SSW,195,3.1,6.3,34,0.00,,---,0.00,VWS V14.01,2013-05-02 11:50:00,
2013-05-02 05:52:00,30.7,5.7,30.41,SSW,195,3.1,6.3,34,0.00,,---,0.00,VWS V14.01,2013-05-02 11:52:00,
2013-05-02 05:53:00,30.4,5.4,30.41,SSW,195,4.0,6.3,34,0.00,,---,0.00,VWS V14.01,2013-05-02 11:53:00,
2013-05-02 05:54:00,30.4,5.4,30.41,SSW,196,3.6,6.3,34,0.00,,---,0.00,VWS V14.01,2013-05-02 11:54:00,
2013-05-02 05:55:00,30.2,5.9,30.41,SSW,198,4.0,6.3,35,0.00,,---,0.00,VWS V14.01,2013-05-02 11:55:00,
2013-05-02 05:57:00,30.0,5.7,30.41,SSW,196,5.4,6.3,35,0.00,,---,0.00,VWS V14.01,2013-05-02 11:57:00,
2013-05-02 05:59:00,29.8,5.5,30.41,SSW,194,4.9,6.3,35,0.00,,---,0.00,VWS V14.01,2013-05-02 11:59:00,
2013-05-02 06:01:00,29.8,5.5,30.41,South,191,3.6,4.0,35,0.00,,---,0.00,VWS V14.01,2013-05-02 12:01:00,
2013-05-02 06:02:00,29.8,6.2,30.41,SSW,194,4.0,4.0,36,0.00,,---,0.00,VWS V14.01,2013-05-02 12:02:00,
2013-05-02 06:04:00,29.7,6.0,30.41,SSW,193,3.6,6.3,36,0.00,,---,0.00,VWS V14.01,2013-05-02 12:04:00,
2013-05-02 06:05:00,29.7,6.0,30.41,SSW,194,4.0,6.3,36,0.00,,---,0.00,VWS V14.01,2013-05-02 12:05:00,
2013-05-02 06:06:00,29.7,6.0,30.41,SSW,194,4.0,6.3,36,0.00,,---,0.00,VWS V14.01,2013-05-02 12:06:00,
2013-05-02 06:07:00,29.7,6.0,30.41,SSW,196,4.0,6.3,36,0.00,,---,0.00,VWS V14.01,2013-05-02 12:07:00,
2013-05-02 06:10:00,29.5,5.8,30.41,South,185,4.5,6.3,36,0.00,,---,0.00,VWS V14.01,2013-05-02 12:10:00,
2013-05-02 06:11:00,29.5,5.8,30.41,SSW,194,4.5,6.3,36,0.00,,---,0.00,VWS V14.01,2013-05-02 12:11:00,
2013-05-02 06:12:00,29.7,6.0,30.41,SSW,194,3.6,6.3,36,0.00,,---,0.00,VWS V14.01,2013-05-02 12:12:00,
2013-05-02 06:15:00,29.7,6.0,30.41,SSW,198,4.9,5.4,36,0.00,,---,0.00,VWS V14.01,2013-05-02 12:15:00,
2013-05-02 06:16:00,29.7,6.0,30.41,SSW,195,4.0,5.4,36,0.00,,---,0.00,VWS V14.01,2013-05-02 12:16:00,
2013-05-02 06:17:00,29.7,6.0,30.41,SSW,196,3.6,5.4,36,0.00,,---,0.00,VWS V14.01,2013-05-02 12:17:00,
2013-05-02 06:20:00,29.8,6.2,30.41,SSW,196,5.4,6.3,36,0.00,,---,0.00,VWS V14.01,2013-05-02 12:20:00,
2013-05-02 06:21:00,29.8,6.2,30.41,SSW,196,6.3,6.3,36,0.00,,---,0.00,VWS V14.01,2013-05-02 12:21:00,
2013-05-02 06:22:00,30.0,6.3,30.41,SSW,196,5.8,6.3,36,0.00,,---,0.00,VWS V14.01,2013-05-02 12:22:00,
2013-05-02 06:25:00,30.2,6.5,30.41,SSW,196,4.5,6.3,36,0.00,,---,0.00,VWS V14.01,2013-05-02 12:25:00,
2013-05-02 06:26:00,30.2,6.5,30.41,SSW,195,4.9,6.3,36,0.00,,---,0.00,VWS V14.01,2013-05-02 12:26:00,
2013-05-02 06:27:00,30.2,6.5,30.41,SSW,197,4.0,6.3,36,0.00,,---,0.00,VWS V14.01,2013-05-02 12:27:00,
2013-05-02 06:28:00,30.2,6.5,30.41,SSW,194,4.0,6.3,36,0.00,,---,0.00,VWS V14.01,2013-05-02 12:28:00,
2013-05-02 06:30:00,30.2,6.5,30.41,SSW,192,3.1,4.0,36,0.00,,---,0.00,VWS V14.01,2013-05-02 12:30:00,
2013-05-02 06:31:00,30.2,6.5,30.41,SSW,192,3.1,4.0,36,0.00,,---,0.00,VWS V14.01,2013-05-02 12:31:00,
2013-05-02 06:32:00,30.2,6.5,30.41,South,190,4.9,5.4,36,0.00,,---,0.00,VWS V14.01,2013-05-02 12:32:00,
2013-05-02 06:33:00,30.2,6.5,30.41,SSW,195,3.6,5.4,36,0.00,,---,0.00,VWS V14.01,2013-05-02 12:33:00,
2013-05-02 06:36:00,30.0,6.3,30.41,SSW,195,4.0,5.4,36,0.00,,---,0.00,VWS V14.01,2013-05-02 12:36:00,
2013-05-02 06:37:00,30.0,6.3,30.41,SSW,195,3.1,5.4,36,0.00,,---,0.00,VWS V14.01,2013-05-02 12:37:00,
2013-05-02 06:38:00,30.0,6.3,30.41,SSW,195,3.1,5.4,36,0.00,,---,0.00,VWS V14.01,2013-05-02 12:38:00,
2013-05-02 06:41:00,29.8,6.2,30.41,SSW,195,3.6,5.4,36,0.00,,---,0.00,VWS V14.01,2013-05-02 12:41:00,
2013-05-02 06:43:00,29.8,6.2,30.41,South,191,2.7,5.4,36,0.00,,---,0.00,VWS V14.01,2013-05-02 12:43:00,
2013-05-02 06:46:00,30.2,6.5,30.41,SSW,192,3.1,4.0,36,0.00,,---,0.00,VWS V14.01,2013-05-02 12:46:00,
2013-05-02 06:47:00,30.2,6.5,30.41,SSW,192,3.1,4.0,36,0.00,,---,0.00,VWS V14.01,2013-05-02 12:47:00,
2013-05-02 06:48:00,30.2,6.5,30.41,SSW,192,3.1,4.0,36,0.00,,---,0.00,VWS V14.01,2013-05-02 12:48:00,
2013-05-02 06:51:00,30.4,6.6,30.41,SSW,192,3.1,4.0,36,0.00,,---,0.00,VWS V14.01,2013-05-02 12:51:00,
2013-05-02 06:52:00,30.4,6.6,30.41,South,191,4.0,4.0,36,0.00,,---,0.00,VWS V14.01,2013-05-02 12:52:00,
2013-05-02 06:53:00,30.4,6.6,30.41,SSW,192,2.7,4.0,36,0.00,,---,0.00,VWS V14.01,2013-05-02 12:53:00,
2013-05-02 06:56:00,30.4,6.6,30.41,SSW,192,3.6,4.0,36,0.00,,---,0.00,VWS V14.01,2013-05-02 12:56:00,
2013-05-02 06:57:00,30.6,6.8,30.41,SSW,196,4.0,4.0,36,0.00,,---,0.00,VWS V14.01,2013-05-02 12:57:00,
2013-05-02 06:58:00,30.7,7.0,30.41,SSW,196,4.0,4.9,36,0.00,,---,0.00,VWS V14.01,2013-05-02 12:58:00,
2013-05-02 06:59:00,30.7,7.0,30.41,SSW,194,4.0,4.9,36,0.00,,---,0.00,VWS V14.01,2013-05-02 12:59:00,
2013-05-02 07:01:00,31.1,7.3,30.41,SSW,192,3.6,4.0,36,0.00,,---,0.00,VWS V14.01,2013-05-02 13:01:00,
2013-05-02 07:02:00,31.1,7.3,30.41,SSW,192,4.0,4.0,36,0.00,,---,0.00,VWS V14.01,2013-05-02 13:02:00,
2013-05-02 07:04:00,31.3,6.8,30.41,SSW,195,3.1,4.9,35,0.00,,---,0.00,VWS V14.01,2013-05-02 13:04:00,
2013-05-02 07:07:00,31.6,7.1,30.41,SSW,194,4.0,4.9,35,0.00,,---,0.00,VWS V14.01,2013-05-02 13:07:00,
2013-05-02 07:09:00,31.8,7.3,30.41,SSW,193,3.6,4.9,35,0.00,,---,0.00,VWS V14.01,2013-05-02 13:09:00,
2013-05-02 07:10:00,31.8,7.3,30.41,SSW,194,2.7,4.9,35,0.00,,---,0.00,VWS V14.01,2013-05-02 13:10:00,
2013-05-02 07:12:00,32.0,7.5,30.41,SSW,196,3.6,4.9,35,0.00,,---,0.00,VWS V14.01,2013-05-02 13:12:00,
2013-05-02 07:13:00,32.2,7.6,30.41,SSW,197,4.0,4.9,35,0.00,,---,0.00,VWS V14.01,2013-05-02 13:13:00,
2013-05-02 07:14:00,32.2,7.6,30.41,SSW,193,2.7,4.9,35,0.00,,---,0.00,VWS V14.01,2013-05-02 13:14:00,
2013-05-02 07:15:00,32.2,7.6,30.41,SSW,193,3.6,4.9,35,0.00,,---,0.00,VWS V14.01,2013-05-02 13:15:00,
2013-05-02 07:17:00,32.5,7.9,30.41,South,189,3.6,4.0,35,0.00,,---,0.00,VWS V14.01,2013-05-02 13:17:00,
2013-05-02 07:18:00,32.5,7.9,30.41,South,190,3.6,4.0,35,0.00,,---,0.00,VWS V14.01,2013-05-02 13:18:00,
2013-05-02 07:19:00,32.7,7.5,30.41,SSW,197,3.6,5.4,34,0.00,,---,0.00,VWS V14.01,2013-05-02 13:19:00,
2013-05-02 07:20:00,32.7,7.5,30.41,SSW,194,4.9,5.4,34,0.00,,---,0.00,VWS V14.01,2013-05-02 13:20:00,
2013-05-02 07:22:00,33.1,7.8,30.41,SSW,192,4.0,5.4,34,0.00,,---,0.00,VWS V14.01,2013-05-02 13:22:00,
2013-05-02 07:23:00,33.3,7.9,30.41,SSW,194,2.7,5.4,34,0.00,,---,0.00,VWS V14.01,2013-05-02 13:23:00,
2013-05-02 07:24:00,33.3,7.9,30.41,South,170,2.7,5.4,34,0.00,,---,0.00,VWS V14.01,2013-05-02 13:24:00,
2013-05-02 07:25:00,33.4,8.1,30.41,South,191,3.1,5.4,34,0.00,,---,0.00,VWS V14.01,2013-05-02 13:25:00,
2013-05-02 07:27:00,33.6,8.3,30.41,South,183,2.7,5.4,34,0.00,,---,0.00,VWS V14.01,2013-05-02 13:27:00,
2013-05-02 07:28:00,33.6,8.3,30.41,South,179,3.1,5.4,34,0.00,,---,0.00,VWS V14.01,2013-05-02 13:28:00,
2013-05-02 07:29:00,33.6,8.3,30.41,South,182,2.7,5.4,34,0.00,,---,0.00,VWS V14.01,2013-05-02 13:29:00,
2013-05-02 07:30:00,33.6,8.3,30.41,South,187,2.7,3.6,34,0.00,,---,0.00,VWS V14.01,2013-05-02 13:30:00,
2013-05-02 07:33:00,33.6,8.3,30.41,South,181,2.7,3.6,34,0.00,,---,0.00,VWS V14.01,2013-05-02 13:33:00,
2013-05-02 07:34:00,33.6,8.3,30.41,South,181,2.7,3.6,34,0.00,,---,0.00,VWS V14.01,2013-05-02 13:34:00,
2013-05-02 07:36:00,33.8,7.8,30.41,South,182,3.6,4.0,33,0.00,,---,0.00,VWS V14.01,2013-05-02 13:36:00,
2013-05-02 07:38:00,33.8,7.8,30.41,South,179,3.6,4.0,33,0.00,,---,0.00,VWS V14.01,2013-05-02 13:38:00,
2013-05-02 07:39:00,34.0,7.9,30.41,South,175,3.1,4.0,33,0.00,,---,0.00,VWS V14.01,2013-05-02 13:39:00,
2013-05-02 07:42:00,34.2,8.1,30.41,South,181,3.6,4.9,33,0.00,,---,0.00,VWS V14.01,2013-05-02 13:42:00,
2013-05-02 07:43:00,34.3,8.2,30.41,SSW,203,3.1,5.8,33,0.00,,---,0.00,VWS V14.01,2013-05-02 13:43:00,
2013-05-02 07:44:00,34.5,8.4,30.41,South,185,2.7,5.8,33,0.00,,---,0.00,VWS V14.01,2013-05-02 13:44:00,
2013-05-02 07:47:00,34.9,8.0,30.41,South,186,4.9,6.7,32,0.00,,---,0.00,VWS V14.01,2013-05-02 13:47:00,
2013-05-02 07:49:00,35.2,8.4,30.41,South,185,2.7,6.7,32,0.00,,---,0.00,VWS V14.01,2013-05-02 13:49:00,
2013-05-02 07:53:00,36.3,8.6,30.41,SSW,196,3.6,6.7,31,0.00,,---,0.00,VWS V14.01,2013-05-02 13:53:00,
2013-05-02 07:54:00,36.3,8.6,30.41,SSW,195,4.0,6.7,31,0.00,,---,0.00,VWS V14.01,2013-05-02 13:54:00,
2013-05-02 07:55:00,36.5,8.8,30.41,SSW,197,4.9,6.7,31,0.00,,---,0.00,VWS V14.01,2013-05-02 13:55:00,
2013-05-02 07:58:00,37.4,8.8,30.41,SSW,200,6.3,6.7,30,0.00,,---,0.00,VWS V14.01,2013-05-02 13:58:00,
2013-05-02 07:59:00,37.8,9.1,30.41,SW,214,5.4,6.7,30,0.00,,---,0.00,VWS V14.01,2013-05-02 13:59:00,
2013-05-02 08:00:00,37.8,9.1,30.41,SSW,198,5.8,6.7,30,0.00,,---,0.00,VWS V14.01,2013-05-02 14:00:00,
2013-05-02 08:01:00,37.9,9.3,30.41,SSW,202,5.8,5.8,30,0.00,,---,0.00,VWS V14.01,2013-05-02 14:01:00,
2013-05-02 08:04:00,38.5,9.0,30.41,SSW,200,7.6,8.3,29,0.00,,---,0.00,VWS V14.01,2013-05-02 14:04:00,
2013-05-02 08:05:00,38.5,9.0,30.41,SSW,199,5.4,8.3,29,0.00,,---,0.00,VWS V14.01,2013-05-02 14:05:00,
2013-05-02 08:06:00,38.5,9.0,30.41,SW,224,5.4,8.3,29,0.00,,---,0.00,VWS V14.01,2013-05-02 14:06:00,
2013-05-02 08:09:00,38.7,9.2,30.41,SSW,207,4.9,8.3,29,0.00,,---,0.00,VWS V14.01,2013-05-02 14:09:00,
2013-05-02 08:10:00,38.8,9.3,30.41,SSW,193,6.3,8.3,29,0.00,,---,0.00,VWS V14.01,2013-05-02 14:10:00,
2013-05-02 08:11:00,38.8,9.3,30.41,SSW,208,5.4,8.3,29,0.00,,---,0.00,VWS V14.01,2013-05-02 14:11:00,
2013-05-02 08:14:00,39.2,8.9,30.41,SW,214,5.4,8.3,28,0.00,,---,0.00,VWS V14.01,2013-05-02 14:14:00,
2013-05-02 08:15:00,39.2,9.6,30.41,SSW,208,4.0,5.4,29,0.00,,---,0.00,VWS V14.01,2013-05-02 14:15:00,
2013-05-02 08:16:00,39.2,9.6,30.41,WSW,252,4.0,5.8,29,0.00,,---,0.00,VWS V14.01,2013-05-02 14:16:00,
2013-05-02 08:19:00,39.4,9.8,30.41,SSW,201,5.8,6.3,29,0.00,,---,0.00,VWS V14.01,2013-05-02 14:19:00,
2013-05-02 08:20:00,39.6,9.9,30.41,SSW,204,2.7,8.1,29,0.00,,---,0.00,VWS V14.01,2013-05-02 14:20:00,
2013-05-02 08:22:00,39.6,9.9,30.41,SSW,211,4.9,8.1,29,0.00,,---,0.00,VWS V14.01,2013-05-02 14:22:00,
2013-05-02 08:24:00,39.7,9.3,30.41,SSW,206,5.4,8.1,28,0.00,,---,0.00,VWS V14.01,2013-05-02 14:24:00,
2013-05-02 08:25:00,39.7,9.3,30.41,SSW,205,6.3,8.7,28,0.00,,---,0.00,VWS V14.01,2013-05-02 14:25:00,
2013-05-02 08:26:00,39.7,9.3,30.41,SSW,211,6.3,8.7,28,0.00,,---,0.00,VWS V14.01,2013-05-02 14:26:00,
2013-05-02 08:27:00,39.7,9.3,30.41,West,266,4.0,8.7,28,0.00,,---,0.00,VWS V14.01,2013-05-02 14:27:00,
2013-05-02 08:29:00,39.9,9.5,30.41,SSW,209,6.3,8.7,28,0.00,,---,0.00,VWS V14.01,2013-05-02 14:29:00,
2013-05-02 08:30:00,40.1,8.0,30.41,SSW,207,5.4,6.3,26,0.00,,---,0.00,VWS V14.01,2013-05-02 14:30:00,
2013-05-02 08:31:00,40.1,8.0,30.41,SSW,213,5.8,6.3,26,0.00,,---,0.00,VWS V14.01,2013-05-02 14:31:00,
2013-05-02 08:32:00,40.3,8.1,30.41,West,269,4.9,8.3,26,0.00,,---,0.00,VWS V14.01,2013-05-02 14:32:00,
2013-05-02 08:34:00,40.5,8.3,30.41,SSW,204,4.9,8.3,26,0.00,,---,0.00,VWS V14.01,2013-05-02 14:34:00,
2013-05-02 08:36:00,40.6,8.4,30.41,SW,222,4.0,8.3,26,0.00,,---,0.00,VWS V14.01,2013-05-02 14:36:00,
2013-05-02 08:37:00,40.6,8.4,30.41,SW,217,4.0,8.3,26,0.00,,---,0.00,VWS V14.01,2013-05-02 14:37:00,
2013-05-02 08:38:00,40.8,8.6,30.41,SSW,199,5.4,8.3,26,0.00,,---,0.00,VWS V14.01,2013-05-02 14:38:00,
2013-05-02 08:40:00,41.2,8.9,30.41,SW,229,3.6,9.6,26,0.00,,---,0.00,VWS V14.01,2013-05-02 14:40:00,
2013-05-02 08:41:00,41.2,8.9,30.41,West,274,4.9,9.6,26,0.00,,---,0.00,VWS V14.01,2013-05-02 14:41:00,
2013-05-02 08:42:00,41.4,6.4,30.41,SSW,200,4.0,9.6,23,0.00,,---,0.00,VWS V14.01,2013-05-02 14:42:00,
2013-05-02 08:43:00,41.5,9.2,30.41,SSW,196,5.8,9.6,26,0.00,,---,0.00,VWS V14.01,2013-05-02 14:43:00,
2013-05-02 08:45:00,41.7,6.7,30.41,SSW,198,5.8,9.6,23,0.00,,---,0.00,VWS V14.01,2013-05-02 14:45:00,
2013-05-02 08:46:00,41.7,6.7,30.41,SSW,207,5.4,5.8,23,0.00,,---,0.00,VWS V14.01,2013-05-02 14:46:00,
2013-05-02 08:48:00,42.1,7.0,30.41,SW,227,4.0,9.2,23,0.00,,---,0.00,VWS V14.01,2013-05-02 14:48:00,
2013-05-02 08:50:00,42.4,7.3,30.41,SSW,206,2.7,9.2,23,0.00,,---,0.00,VWS V14.01,2013-05-02 14:50:00,
2013-05-02 08:51:00,42.6,7.4,30.41,SSW,196,8.1,9.2,23,0.00,,---,0.00,VWS V14.01,2013-05-02 14:51:00,
2013-05-02 08:52:00,42.6,7.4,30.41,South,189,4.0,9.2,23,0.00,,---,0.00,VWS V14.01,2013-05-02 14:52:00,
2013-05-02 08:53:00,42.8,7.6,30.41,SSW,201,3.1,9.2,23,0.00,,---,0.00,VWS V14.01,2013-05-02 14:53:00,
2013-05-02 08:54:00,43.0,7.7,30.41,SSW,201,5.8,9.2,23,0.00,,---,0.00,VWS V14.01,2013-05-02 14:54:00,
2013-05-02 08:55:00,43.3,5.0,30.41,SSW,204,5.8,9.2,20,0.00,,---,0.00,VWS V14.01,2013-05-02 14:55:00,
2013-05-02 08:56:00,43.5,5.1,30.41,SSW,202,3.1,9.2,20,0.00,,---,0.00,VWS V14.01,2013-05-02 14:56:00,
2013-05-02 08:57:00,43.5,5.1,30.41,South,187,4.9,9.2,20,0.00,,---,0.00,VWS V14.01,2013-05-02 14:57:00,
2013-05-02 08:59:00,43.9,5.4,30.41,SW,231,5.8,9.2,20,0.00,,---,0.00,VWS V14.01,2013-05-02 14:59:00,
2013-05-02 09:00:00,44.1,5.6,30.41,SW,214,5.8,5.8,20,0.00,,---,0.00,VWS V14.01,2013-05-02 15:00:00,
2013-05-02 09:01:00,44.2,5.7,30.41,SSW,194,5.8,5.8,20,0.00,,---,0.00,VWS V14.01,2013-05-02 15:01:00,
2013-05-02 09:02:00,44.2,5.7,30.41,SW,227,4.9,5.8,20,0.00,,---,0.00,VWS V14.01,2013-05-02 15:02:00,
2013-05-02 09:04:00,44.6,6.0,30.41,SSW,192,6.3,6.3,20,0.00,,---,0.00,VWS V14.01,2013-05-02 15:04:00,
2013-05-02 09:06:00,45.0,6.3,30.41,West,261,4.0,6.3,20,0.00,,---,0.00,VWS V14.01,2013-05-02 15:06:00,
2013-05-02 09:07:00,45.0,6.3,30.41,NW,316,3.6,6.3,20,0.00,,---,0.00,VWS V14.01,2013-05-02 15:07:00,
2013-05-02 09:09:00,45.5,6.8,30.41,West,266,3.6,6.3,20,0.00,,---,0.00,VWS V14.01,2013-05-02 15:09:00,
2013-05-02 09:11:00,46.0,7.2,30.41,SSW,197,6.3,6.3,20,0.00,,---,0.00,VWS V14.01,2013-05-02 15:11:00,
2013-05-02 09:12:00,46.4,6.4,30.41,SSW,202,5.4,6.3,19,0.00,,---,0.00,VWS V14.01,2013-05-02 15:12:00,
2013-05-02 09:14:00,46.6,4.1,30.41,SSW,209,5.4,8.3,17,0.00,,---,0.00,VWS V14.01,2013-05-02 15:14:00,
2013-05-02 09:15:00,46.6,4.1,30.41,SSW,209,5.4,8.3,17,0.00,,---,0.00,VWS V14.01,2013-05-02 15:15:00,
2013-05-02 09:16:00,46.6,4.1,30.41,South,180,6.3,6.3,17,0.00,,---,0.00,VWS V14.01,2013-05-02 15:16:00,
2013-05-02 09:17:00,46.6,4.1,30.41,SSW,210,5.8,6.3,17,0.00,,---,0.00,VWS V14.01,2013-05-02 15:17:00,
2013-05-02 09:19:00,46.8,4.3,30.41,South,176,3.1,6.3,17,0.00,,---,0.00,VWS V14.01,2013-05-02 15:19:00,
2013-05-02 09:20:00,46.8,4.3,30.41,South,176,3.1,6.3,17,0.00,,---,0.00,VWS V14.01,2013-05-02 15:20:00,
2013-05-02 09:21:00,46.9,4.4,30.41,South,191,5.4,6.3,17,0.00,,---,0.00,VWS V14.01,2013-05-02 15:21:00,
2013-05-02 09:22:00,46.9,4.4,30.41,SSW,194,4.0,6.3,17,0.00,,---,0.00,VWS V14.01,2013-05-02 15:22:00,
2013-05-02 09:23:00,47.1,4.6,30.41,SSW,202,5.4,6.3,17,0.00,,---,0.00,VWS V14.01,2013-05-02 15:23:00,
2013-05-02 09:25:00,47.3,4.7,30.41,South,176,2.2,6.3,17,0.00,,---,0.00,VWS V14.01,2013-05-02 15:25:00,
2013-05-02 09:26:00,47.7,5.0,30.41,SSW,205,2.7,6.3,17,0.00,,---,0.00,VWS V14.01,2013-05-02 15:26:00,
2013-05-02 09:27:00,47.8,5.2,30.41,SSW,205,2.2,6.3,17,0.00,,---,0.00,VWS V14.01,2013-05-02 15:27:00,
2013-05-02 09:28:00,48.2,4.1,30.41,SSW,205,2.2,6.3,16,0.00,,---,0.00,VWS V14.01,2013-05-02 15:28:00,
2013-05-02 09:30:00,48.7,4.6,30.41,SW,228,2.7,2.7,16,0.00,,---,0.00,VWS V14.01,2013-05-02 15:30:00,
2013-05-02 09:31:00,49.1,4.9,30.41,West,270,2.2,3.6,16,0.00,,---,0.00,VWS V14.01,2013-05-02 15:31:00,
2013-05-02 09:32:00,49.3,5.0,30.41,West,270,3.1,3.6,16,0.00,,---,0.00,VWS V14.01,2013-05-02 15:32:00,
2013-05-02 09:33:00,49.5,5.2,30.41,West,270,2.7,3.6,16,0.00,,---,0.00,VWS V14.01,2013-05-02 15:33:00,
2013-05-02 09:35:00,49.8,5.4,30.41,South,188,5.4,5.4,16,0.00,,---,0.00,VWS V14.01,2013-05-02 15:35:00,
2013-05-02 09:36:00,50.0,5.6,30.41,South,172,4.0,5.4,16,0.00,,---,0.00,VWS V14.01,2013-05-02 15:36:00,
2013-05-02 09:38:00,49.8,5.4,30.41,SSW,208,5.4,5.4,16,0.00,,---,0.00,VWS V14.01,2013-05-02 15:38:00,
2013-05-02 09:40:00,49.6,5.3,30.41,West,264,2.7,5.4,16,0.00,,---,0.00,VWS V14.01,2013-05-02 15:40:00,
2013-05-02 09:42:00,49.6,5.3,30.41,WSW,244,4.9,5.4,16,0.00,,---,0.00,VWS V14.01,2013-05-02 15:42:00,
2013-05-02 09:43:00,49.6,2.4,30.41,SSE,166,3.1,6.3,14,0.00,,---,0.00,VWS V14.01,2013-05-02 15:43:00,
2013-05-02 09:46:00,49.6,5.3,30.38,South,173,0.0,2.2,16,0.00,,---,0.00,VWS V14.01,2013-05-02 15:46:00,
2013-05-02 09:47:00,49.6,5.3,30.38,South,191,5.4,5.4,16,0.00,,---,0.00,VWS V14.01,2013-05-02 15:47:00,
2013-05-02 09:48:00,49.8,2.5,30.38,SW,228,4.0,5.4,14,0.00,,---,0.00,VWS V14.01,2013-05-02 15:48:00,
2013-05-02 09:49:00,49.8,2.5,30.38,South,185,2.2,5.4,14,0.00,,---,0.00,VWS V14.01,2013-05-02 15:49:00,
2013-05-02 09:51:00,50.0,2.7,30.38,South,185,0.0,5.4,14,0.00,,---,0.00,VWS V14.01,2013-05-02 15:51:00,
2013-05-02 09:52:00,50.2,5.7,30.38,NNW,336,2.7,5.4,16,0.00,,---,0.00,VWS V14.01,2013-05-02 15:52:00,
2013-05-02 09:53:00,50.2,5.7,30.38,NNE,24,4.0,5.4,16,0.00,,---,0.00,VWS V14.01,2013-05-02 15:53:00,
2013-05-02 09:54:00,50.2,5.7,30.38,North,350,3.1,5.4,16,0.00,,---,0.00,VWS V14.01,2013-05-02 15:54:00,
2013-05-02 09:56:00,49.6,5.3,30.38,NNE,29,3.6,5.4,16,0.00,,---,0.00,VWS V14.01,2013-05-02 15:56:00,
2013-05-02 09:57:00,49.3,5.0,30.38,NE,44,0.0,5.4,16,0.00,,---,0.00,VWS V14.01,2013-05-02 15:57:00,
2013-05-02 09:58:00,49.1,4.9,30.38,NNE,23,3.6,5.4,16,0.00,,---,0.00,VWS V14.01,2013-05-02 15:58:00,
2013-05-02 09:59:00,49.1,4.9,30.38,North,353,3.6,5.4,16,0.00,,---,0.00,VWS V14.01,2013-05-02 15:59:00,
2013-05-02 10:01:00,48.7,4.6,30.38,North,3,5.8,5.8,16,0.00,,---,0.00,VWS V14.01,2013-05-02 16:01:00,
2013-05-02 10:02:00,48.7,4.6,30.38,North,7,4.0,5.8,16,0.00,,---,0.00,VWS V14.01,2013-05-02 16:02:00,
2013-05-02 10:03:00,48.6,4.4,30.38,North,6,4.9,5.8,16,0.00,,---,0.00,VWS V14.01,2013-05-02 16:03:00,
2013-05-02 10:04:00,48.6,4.4,30.38,North,1,5.4,5.8,16,0.00,,---,0.00,VWS V14.01,2013-05-02 16:04:00,
2013-05-02 10:06:00,48.6,4.4,30.38,NNE,18,0.0,5.8,16,0.00,,---,0.00,VWS V14.01,2013-05-02 16:06:00,
2013-05-02 10:07:00,48.7,4.6,30.38,NNE,22,2.7,5.8,16,0.00,,---,0.00,VWS V14.01,2013-05-02 16:07:00,
2013-05-02 10:08:00,48.9,4.7,30.38,South,181,3.6,5.8,16,0.00,,---,0.00,VWS V14.01,2013-05-02 16:08:00,
2013-05-02 10:09:00,49.5,5.2,30.38,WSW,249,2.2,5.8,16,0.00,,---,0.00,VWS V14.01,2013-05-02 16:09:00,
2013-05-02 10:12:00,50.2,5.7,30.38,NE,39,3.6,5.8,16,0.00,,---,0.00,VWS V14.01,2013-05-02 16:12:00,
2013-05-02 10:13:00,50.2,5.7,30.38,SSE,151,2.7,5.8,16,0.00,,---,0.00,VWS V14.01,2013-05-02 16:13:00,
2013-05-02 10:14:00,50.2,5.7,30.38,SSW,210,4.0,5.8,16,0.00,,---,0.00,VWS V14.01,2013-05-02 16:14:00,
2013-05-02 10:17:00,50.0,5.6,30.38,North,11,3.6,5.4,16,0.00,,---,0.00,VWS V14.01,2013-05-02 16:17:00,
2013-05-02 10:18:00,49.8,5.4,30.38,North,7,3.1,5.4,16,0.00,,---,0.00,VWS V14.01,2013-05-02 16:18:00,
2013-05-02 10:19:00,49.5,5.2,30.38,NNW,344,5.8,5.8,16,0.00,,---,0.00,VWS V14.01,2013-05-02 16:19:00,
2013-05-02 10:22:00,49.8,2.5,30.38,West,273,0.0,5.8,14,0.00,,---,0.00,VWS V14.01,2013-05-02 16:22:00,
2013-05-02 10:23:00,50.0,5.6,30.38,WNW,301,3.1,5.8,16,0.00,,---,0.00,VWS V14.01,2013-05-02 16:23:00,
2013-05-02 10:24:00,50.4,3.0,30.38,West,271,3.1,5.8,14,0.00,,---,0.00,VWS V14.01,2013-05-02 16:24:00,
2013-05-02 10:27:00,50.9,6.3,30.38,North,357,5.4,7.6,16,0.00,,---,0.00,VWS V14.01,2013-05-02 16:27:00,
2013-05-02 10:28:00,50.9,6.3,30.38,North,357,4.9,7.6,16,0.00,,---,0.00,VWS V14.01,2013-05-02 16:28:00,
2013-05-02 10:30:00,50.4,5.9,30.38,NW,314,2.7,7.6,16,0.00,,---,0.00,VWS V14.01,2013-05-02 16:30:00,
2013-05-02 10:32:00,50.0,5.6,30.38,North,5,4.0,6.3,16,0.00,,---,0.00,VWS V14.01,2013-05-02 16:32:00,
2013-05-02 10:33:00,49.8,5.4,30.38,North,0,4.0,6.3,16,0.00,,---,0.00,VWS V14.01,2013-05-02 16:33:00,
2013-05-02 10:35:00,49.8,5.4,30.38,NNE,31,3.1,6.3,16,0.00,,---,0.00,VWS V14.01,2013-05-02 16:35:00,
2013-05-02 10:37:00,49.6,5.3,30.38,North,8,4.9,6.3,16,0.00,,---,0.00,VWS V14.01,2013-05-02 16:37:00,
2013-05-02 10:39:00,49.6,5.3,30.38,NNW,341,2.7,6.3,16,0.00,,---,0.00,VWS V14.01,2013-05-02 16:39:00,
2013-05-02 10:40:00,49.8,5.4,30.38,SSW,211,2.7,6.3,16,0.00,,---,0.00,VWS V14.01,2013-05-02 16:40:00,
2013-05-02 10:41:00,50.0,5.6,30.38,South,185,4.0,6.3,16,0.00,,---,0.00,VWS V14.01,2013-05-02 16:41:00,
2013-05-02 10:43:00,50.4,5.9,30.38,South,189,2.2,6.3,16,0.00,,---,0.00,VWS V14.01,2013-05-02 16:43:00,
2013-05-02 10:44:00,50.7,6.2,30.38,South,187,0.0,6.3,16,0.00,,---,0.00,VWS V14.01,2013-05-02 16:44:00,
2013-05-02 10:45:00,50.7,6.2,30.38,NNE,16,4.0,6.3,16,0.00,,---,0.00,VWS V14.01,2013-05-02 16:45:00,
2013-05-02 10:46:00,50.9,6.3,30.38,North,0,4.0,5.4,16,0.00,,---,0.00,VWS V14.01,2013-05-02 16:46:00,
2013-05-02 10:48:00,50.5,6.0,30.38,NE,34,3.1,5.8,16,0.00,,---,0.00,VWS V14.01,2013-05-02 16:48:00,
2013-05-02 10:50:00,50.4,5.9,30.38,ESE,110,0.0,5.8,16,0.00,,---,0.00,VWS V14.01,2013-05-02 16:50:00,
2013-05-02 10:52:00,50.2,5.7,30.38,North,5,3.1,5.8,16,0.00,,---,0.00,VWS V14.01,2013-05-02 16:52:00,
2013-05-02 10:53:00,50.0,5.6,30.38,NE,42,3.1,5.8,16,0.00,,---,0.00,VWS V14.01,2013-05-02 16:53:00,
2013-05-02 10:55:00,50.0,5.6,30.38,North,353,3.6,5.8,16,0.00,,---,0.00,VWS V14.01,2013-05-02 16:55:00,
2013-05-02 10:56:00,50.0,5.6,30.38,North,357,0.0,5.8,16,0.00,,---,0.00,VWS V14.01,2013-05-02 16:56:00,
2013-05-02 10:57:00,50.0,5.6,30.38,NE,51,0.0,5.8,16,0.00,,---,0.00,VWS V14.01,2013-05-02 16:57:00,
2013-05-02 10:58:00,50.2,5.7,30.38,North,10,3.6,5.8,16,0.00,,---,0.00,VWS V14.01,2013-05-02 16:58:00,
2013-05-02 11:00:00,50.2,5.7,30.38,North,357,3.1,3.1,16,0.00,,---,0.00,VWS V14.01,2013-05-02 17:00:00,
2013-05-02 11:01:00,50.2,5.7,30.35,North,1,5.4,5.4,16,0.00,,---,0.00,VWS V14.01,2013-05-02 17:01:00,
2013-05-02 11:02:00,50.2,5.7,30.35,NNW,331,3.6,5.4,16,0.00,,---,0.00,VWS V14.01,2013-05-02 17:02:00,
2013-05-02 11:03:00,50.2,5.7,30.35,NNE,13,3.6,5.4,16,0.00,,---,0.00,VWS V14.01,2013-05-02 17:03:00,
2013-05-02 11:05:00,50.2,5.7,30.35,NNW,346,3.6,5.4,16,0.00,,---,0.00,VWS V14.01,2013-05-02 17:05:00,
2013-05-02 11:06:00,50.2,5.7,30.35,WSW,251,3.1,5.4,16,0.00,,---,0.00,VWS V14.01,2013-05-02 17:06:00,
2013-05-02 11:07:00,50.2,5.7,30.35,SW,236,3.6,5.4,16,0.00,,---,0.00,VWS V14.01,2013-05-02 17:07:00,
2013-05-02 11:09:00,50.4,5.9,30.35,North,357,3.1,5.4,16,0.00,,---,0.00,VWS V14.01,2013-05-02 17:09:00,
2013-05-02 11:11:00,50.5,6.0,30.35,NNE,19,4.0,5.8,16,0.00,,---,0.00,VWS V14.01,2013-05-02 17:11:00,
2013-05-02 11:12:00,50.4,5.9,30.35,NE,39,2.2,5.8,16,0.00,,---,0.00,VWS V14.01,2013-05-02 17:12:00,
2013-05-02 11:13:00,50.4,5.9,30.35,NE,39,0.0,5.8,16,0.00,,---,0.00,VWS V14.01,2013-05-02 17:13:00,
2013-05-02 11:14:00,50.4,5.9,30.35,NNE,20,3.6,5.8,16,0.00,,---,0.00,VWS V14.01,2013-05-02 17:14:00,
2013-05-02 11:16:00,50.4,5.9,30.35,North,353,6.3,6.3,16,0.00,,---,0.00,VWS V14.01,2013-05-02 17:16:00,
2013-05-02 11:17:00,50.4,3.0,30.35,North,7,6.3,7.6,14,0.00,,---,0.00,VWS V14.01,2013-05-02 17:17:00,
2013-05-02 11:18:00,50.2,5.7,30.35,NNE,23,5.8,7.6,16,0.00,,---,0.00,VWS V14.01,2013-05-02 17:18:00,
2013-05-02 11:19:00,50.0,5.6,30.35,NNE,16,3.6,7.6,16,0.00,,---,0.00,VWS V14.01,2013-05-02 17:19:00,
2013-05-02 11:21:00,49.8,5.4,30.35,NNW,340,2.7,7.6,16,0.00,,---,0.00,VWS V14.01,2013-05-02 17:21:00,
2013-05-02 11:22:00,50.0,5.6,30.35,North,6,4.0,7.6,16,0.00,,---,0.00,VWS V14.01,2013-05-02 17:22:00,
2013-05-02 11:23:00,50.0,5.6,30.35,North,7,3.6,7.6,16,0.00,,---,0.00,VWS V14.01,2013-05-02 17:23:00,
2013-05-02 11:24:00,50.0,5.6,30.35,North,0,3.1,7.6,16,0.00,,---,0.00,VWS V14.01,2013-05-02 17:24:00,
2013-05-02 11:26:00,50.2,5.7,30.35,North,357,3.6,7.6,16,0.00,,---,0.00,VWS V14.01,2013-05-02 17:26:00,
2013-05-02 11:27:00,50.4,5.9,30.35,North,10,4.0,7.6,16,0.00,,---,0.00,VWS V14.01,2013-05-02 17:27:00,
2013-05-02 11:28:00,50.4,5.9,30.35,North,0,5.8,7.6,16,0.00,,---,0.00,VWS V14.01,2013-05-02 17:28:00,
2013-05-02 11:29:00,50.4,5.9,30.35,NNW,331,3.1,7.6,16,0.00,,---,0.00,VWS V14.01,2013-05-02 17:29:00,
2013-05-02 11:31:00,50.7,6.2,30.35,NNW,344,5.8,7.6,16,0.00,,---,0.00,VWS V14.01,2013-05-02 17:31:00,
2013-05-02 11:32:00,50.7,6.2,30.35,North,353,6.3,7.6,16,0.00,,---,0.00,VWS V14.01,2013-05-02 17:32:00,
2013-05-02 11:33:00,50.7,6.2,30.35,NNW,336,3.6,7.6,16,0.00,,---,0.00,VWS V14.01,2013-05-02 17:33:00,
2013-05-02 11:35:00,50.7,6.2,30.35,North,9,5.8,7.6,16,0.00,,---,0.00,VWS V14.01,2013-05-02 17:35:00,
2013-05-02 11:36:00,50.7,6.2,30.35,North,353,3.1,7.6,16,0.00,,---,0.00,VWS V14.01,2013-05-02 17:36:00,
2013-05-02 11:37:00,50.7,6.2,30.35,NW,314,4.0,7.6,16,0.00,,---,0.00,VWS V14.01,2013-05-02 17:37:00,
2013-05-02 11:38:00,50.7,6.2,30.35,WNW,295,2.7,7.6,16,0.00,,---,0.00,VWS V14.01,2013-05-02 17:38:00,
2013-05-02 11:40:00,51.1,6.5,30.35,ESE,104,6.3,7.6,16,0.00,,---,0.00,VWS V14.01,2013-05-02 17:40:00,
2013-05-02 11:42:00,51.4,6.8,30.35,ENE,67,2.2,7.6,16,0.00,,---,0.00,VWS V14.01,2013-05-02 17:42:00,
2013-05-02 11:43:00,51.4,6.8,30.35,ENE,68,0.0,7.6,16,0.00,,---,0.00,VWS V14.01,2013-05-02 17:43:00,
2013-05-02 11:46:00,51.6,4.0,30.35,North,353,2.2,6.3,14,0.00,,---,0.00,VWS V14.01,2013-05-02 17:46:00,
2013-05-02 11:47:00,51.6,6.9,30.35,NNW,343,2.7,6.3,16,0.00,,---,0.00,VWS V14.01,2013-05-02 17:47:00,
2013-05-02 11:48:00,51.6,6.9,30.35,NNW,339,3.1,6.3,16,0.00,,---,0.00,VWS V14.01,2013-05-02 17:48:00,
2013-05-02 11:52:00,52.0,7.2,30.35,North,357,7.6,7.6,16,0.00,,---,0.00,VWS V14.01,2013-05-02 17:52:00,
2013-05-02 11:53:00,51.8,2.5,30.35,NNE,33,2.7,7.6,13,0.00,,---,0.00,VWS V14.01,2013-05-02 17:53:00,
2013-05-02 11:57:00,51.6,6.9,30.35,SE,133,3.1,7.6,16,0.00,,---,0.00,VWS V14.01,2013-05-02 17:57:00,
2013-05-02 11:58:00,52.2,2.8,30.35,East,101,5.4,7.6,13,0.00,,---,0.00,VWS V14.01,2013-05-02 17:58:00,
2013-05-02 12:02:00,52.9,7.9,30.32,NNE,22,5.8,6.3,16,0.00,,---,0.00,VWS V14.01,2013-05-02 18:02:00,
2013-05-02 12:03:00,52.9,3.4,30.32,North,7,3.1,6.3,13,0.00,,---,0.00,VWS V14.01,2013-05-02 18:03:00,
2013-05-02 12:07:00,52.9,3.4,30.32,NE,55,3.1,6.3,13,0.00,,---,0.00,VWS V14.01,2013-05-02 18:07:00,
2013-05-02 12:09:00,52.7,3.2,30.32,North,1,5.4,6.3,13,0.00,,---,0.00,VWS V14.01,2013-05-02 18:09:00,
2013-05-02 12:12:00,52.3,3.0,30.32,NNE,19,3.1,6.3,13,0.00,,---,0.00,VWS V14.01,2013-05-02 18:12:00,
2013-05-02 12:13:00,52.0,2.7,30.32,NNE,18,3.6,6.7,13,0.00,,---,0.00,VWS V14.01,2013-05-02 18:13:00,
2013-05-02 12:14:00,52.0,2.7,30.32,NE,50,2.2,6.7,13,0.00,,---,0.00,VWS V14.01,2013-05-02 18:14:00,
2013-05-02 12:17:00,51.8,2.5,30.32,WSW,257,2.7,4.9,13,0.00,,---,0.00,VWS V14.01,2013-05-02 18:17:00,
2013-05-02 12:18:00,51.8,2.5,30.32,WSW,257,3.1,4.9,13,0.00,,---,0.00,VWS V14.01,2013-05-02 18:18:00,
2013-05-02 12:19:00,52.0,2.7,30.32,NNW,342,3.6,4.9,13,0.00,,---,0.00,VWS V14.01,2013-05-02 18:19:00,
2013-05-02 12:23:00,52.3,3.0,30.32,NNE,23,3.6,5.4,13,0.00,,---,0.00,VWS V14.01,2013-05-02 18:23:00,
2013-05-02 12:24:00,52.3,3.0,30.32,NNE,27,3.6,5.4,13,0.00,,---,0.00,VWS V14.01,2013-05-02 18:24:00,
2013-05-02 12:25:00,52.3,3.0,30.32,NE,41,0.0,5.8,13,0.00,,---,0.00,VWS V14.01,2013-05-02 18:25:00,
2013-05-02 12:28:00,52.5,3.1,30.32,North,5,4.0,5.8,13,0.00,,---,0.00,VWS V14.01,2013-05-02 18:28:00,
2013-05-02 12:29:00,52.7,3.2,30.32,NNE,13,5.4,5.8,13,0.00,,---,0.00,VWS V14.01,2013-05-02 18:29:00,
2013-05-02 12:30:00,52.7,3.2,30.32,North,357,4.0,5.4,13,0.00,,---,0.00,VWS V14.01,2013-05-02 18:30:00,
2013-05-02 12:33:00,53.1,3.5,30.32,NE,44,3.6,5.8,13,0.00,,---,0.00,VWS V14.01,2013-05-02 18:33:00,
2013-05-02 12:34:00,53.1,3.5,30.32,SE,137,4.0,5.8,13,0.00,,---,0.00,VWS V14.01,2013-05-02 18:34:00,
2013-05-02 12:35:00,53.1,3.5,30.32,North,8,6.3,6.3,13,0.00,,---,0.00,VWS V14.01,2013-05-02 18:35:00,
2013-05-02 12:36:00,53.1,3.5,30.32,NE,40,3.6,6.3,13,0.00,,---,0.00,VWS V14.01,2013-05-02 18:36:00,
2013-05-02 12:38:00,53.1,3.5,30.32,NE,54,3.6,6.3,13,0.00,,---,0.00,VWS V14.01,2013-05-02 18:38:00,
2013-05-02 12:39:00,53.1,3.5,30.32,ENE,61,2.7,6.3,13,0.00,,---,0.00,VWS V14.01,2013-05-02 18:39:00,
2013-05-02 12:40:00,53.2,3.7,30.32,NNE,29,4.9,6.3,13,0.00,,---,0.00,VWS V14.01,2013-05-02 18:40:00,
2013-05-02 12:41:00,53.2,3.7,30.32,North,11,3.1,6.3,13,0.00,,---,0.00,VWS V14.01,2013-05-02 18:41:00,
2013-05-02 12:43:00,53.2,3.7,30.32,East,90,2.2,7.6,13,0.00,,---,0.00,VWS V14.01,2013-05-02 18:43:00,
2013-05-02 12:44:00,53.2,3.7,30.32,East,90,0.0,7.6,13,0.00,,---,0.00,VWS V14.01,2013-05-02 18:44:00,
2013-05-02 12:45:00,53.4,3.8,30.32,NNE,22,4.0,4.0,13,0.00,,---,0.00,VWS V14.01,2013-05-02 18:45:00,
2013-05-02 12:46:00,53.6,4.0,30.32,NE,37,5.4,7.6,13,0.00,,---,0.00,VWS V14.01,2013-05-02 18:46:00,
2013-05-02 12:48:00,53.8,4.1,30.32,NNE,25,5.4,7.6,13,0.00,,---,0.00,VWS V14.01,2013-05-02 18:48:00,
2013-05-02 12:49:00,53.8,4.1,30.32,NE,39,2.2,7.6,13,0.00,,---,0.00,VWS V14.01,2013-05-02 18:49:00,
2013-05-02 12:50:00,53.8,4.1,30.32,ESE,110,2.7,7.6,13,0.00,,---,0.00,VWS V14.01,2013-05-02 18:50:00,
2013-05-02 12:51:00,53.8,4.1,30.32,East,90,3.1,7.6,13,0.00,,---,0.00,VWS V14.01,2013-05-02 18:51:00,
2013-05-02 12:54:00,54.0,4.2,30.32,East,94,3.1,7.6,13,0.00,,---,0.00,VWS V14.01,2013-05-02 18:54:00,
2013-05-02 12:55:00,54.1,4.4,30.32,North,10,3.1,7.6,13,0.00,,---,0.00,VWS V14.01,2013-05-02 18:55:00,
2013-05-02 12:56:00,54.5,4.7,30.32,North,357,4.0,7.6,13,0.00,,---,0.00,VWS V14.01,2013-05-02 18:56:00,
2013-05-02 12:59:00,54.5,4.7,30.32,ENE,77,2.7,7.6,13,0.00,,---,0.00,VWS V14.01,2013-05-02 18:59:00,
2013-05-02 13:00:00,54.3,4.5,30.32,NNE,16,3.1,3.1,13,0.00,,---,0.00,VWS V14.01,2013-05-02 19:00:00,
2013-05-02 13:01:00,54.5,4.7,30.29,NNE,22,3.6,4.0,13,0.00,,---,0.00,VWS V14.01,2013-05-02 19:01:00,
2013-05-02 13:04:00,54.9,5.0,30.29,ENE,70,3.1,5.4,13,0.00,,---,0.00,VWS V14.01,2013-05-02 19:04:00,
2013-05-02 13:05:00,54.7,4.8,30.29,NNE,17,5.4,5.4,13,0.00,,---,0.00,VWS V14.01,2013-05-02 19:05:00,
2013-05-02 13:08:00,55.0,5.1,30.29,NNE,14,2.7,6.3,13,0.00,,---,0.00,VWS V14.01,2013-05-02 19:08:00,
2013-05-02 13:09:00,55.0,5.1,30.29,NNE,23,4.0,6.3,13,0.00,,---,0.00,VWS V14.01,2013-05-02 19:09:00,
2013-05-02 13:10:00,55.0,5.1,30.29,North,6,3.6,6.3,13,0.00,,---,0.00,VWS V14.01,2013-05-02 19:10:00,
2013-05-02 13:13:00,54.9,5.0,30.29,North,353,3.6,6.7,13,0.00,,---,0.00,VWS V14.01,2013-05-02 19:13:00,
2013-05-02 13:14:00,54.9,5.0,30.29,North,2,6.3,6.7,13,0.00,,---,0.00,VWS V14.01,2013-05-02 19:14:00,
2013-05-02 13:15:00,54.9,5.0,30.29,WNW,301,4.0,6.7,13,0.00,,---,0.00,VWS V14.01,2013-05-02 19:15:00,
2013-05-02 13:18:00,54.9,5.0,30.29,North,7,5.4,5.8,13,0.00,,---,0.00,VWS V14.01,2013-05-02 19:18:00,
2013-05-02 13:19:00,54.9,5.0,30.29,NNE,15,4.9,8.1,13,0.00,,---,0.00,VWS V14.01,2013-05-02 19:19:00,
2013-05-02 13:20:00,54.9,5.0,30.29,NNE,18,2.2,8.1,13,0.00,,---,0.00,VWS V14.01,2013-05-02 19:20:00,
2013-05-02 13:21:00,54.9,5.0,30.29,North,11,5.4,8.1,13,0.00,,---,0.00,VWS V14.01,2013-05-02 19:21:00,
2013-05-02 13:24:00,55.0,5.1,30.29,NW,308,2.7,8.1,13,0.00,,---,0.00,VWS V14.01,2013-05-02 19:24:00,
2013-05-02 13:25:00,55.0,5.1,30.29,NNW,342,5.4,8.1,13,0.00,,---,0.00,VWS V14.01,2013-05-02 19:25:00,
2013-05-02 13:26:00,55.0,5.1,30.29,North,0,4.9,8.1,13,0.00,,---,0.00,VWS V14.01,2013-05-02 19:26:00,
2013-05-02 13:29:00,55.8,3.9,30.29,North,9,5.4,8.1,12,0.00,,---,0.00,VWS V14.01,2013-05-02 19:29:00,
2013-05-02 13:30:00,55.8,3.9,30.29,NNW,339,8.3,10.1,12,0.00,,---,0.00,VWS V14.01,2013-05-02 19:30:00,
2013-05-02 13:31:00,55.6,3.8,30.29,NW,318,0.0,4.0,12,0.00,,---,0.00,VWS V14.01,2013-05-02 19:31:00,
2013-05-02 13:34:00,55.8,3.9,30.29,NNE,18,4.0,5.4,12,0.00,,---,0.00,VWS V14.01,2013-05-02 19:34:00,
2013-05-02 13:35:00,55.8,3.9,30.29,NNE,33,3.1,5.4,12,0.00,,---,0.00,VWS V14.01,2013-05-02 19:35:00,
2013-05-02 13:36:00,55.8,3.9,30.29,East,81,3.6,5.4,12,0.00,,---,0.00,VWS V14.01,2013-05-02 19:36:00,
2013-05-02 13:40:00,55.9,4.1,30.29,East,101,2.7,6.3,12,0.00,,---,0.00,VWS V14.01,2013-05-02 19:40:00,
2013-05-02 13:41:00,55.9,4.1,30.29,North,4,4.0,6.3,12,0.00,,---,0.00,VWS V14.01,2013-05-02 19:41:00,
2013-05-02 13:45:00,56.1,4.2,30.29,NNE,26,3.6,6.3,12,0.00,,---,0.00,VWS V14.01,2013-05-02 19:45:00,
2013-05-02 13:46:00,56.3,4.4,30.29,North,10,3.1,4.9,12,0.00,,---,0.00,VWS V14.01,2013-05-02 19:46:00,
2013-05-02 13:50:00,56.8,4.8,30.29,ESE,122,4.0,6.3,12,0.00,,---,0.00,VWS V14.01,2013-05-02 19:50:00,
2013-05-02 13:51:00,57.0,4.9,30.29,ESE,116,4.0,6.3,12,0.00,,---,0.00,VWS V14.01,2013-05-02 19:51:00,
2013-05-02 13:55:00,57.6,5.3,30.29,East,97,3.1,6.3,12,0.00,,---,0.00,VWS V14.01,2013-05-02 19:55:00,
2013-05-02 13:56:00,57.6,5.3,30.29,ESE,116,4.9,6.3,12,0.00,,---,0.00,VWS V14.01,2013-05-02 19:56:00,
2013-05-02 14:00:00,57.7,5.5,30.29,North,9,3.1,4.0,12,0.00,,---,0.00,VWS V14.01,2013-05-02 20:00:00,
2013-05-02 14:01:00,57.7,5.5,30.29,NNE,12,2.2,4.0,12,0.00,,---,0.00,VWS V14.01,2013-05-02 20:01:00,
2013-05-02 14:02:00,57.6,5.3,30.29,ESE,103,4.9,5.8,12,0.00,,---,0.00,VWS V14.01,2013-05-02 20:02:00,
2013-05-02 14:05:00,57.6,5.3,30.29,NNE,17,4.9,7.6,12,0.00,,---,0.00,VWS V14.01,2013-05-02 20:05:00,
2013-05-02 14:06:00,57.6,5.3,30.29,NNE,18,3.6,7.6,12,0.00,,---,0.00,VWS V14.01,2013-05-02 20:06:00,
2013-05-02 14:07:00,57.6,5.3,30.29,NE,55,2.7,7.6,12,0.00,,---,0.00,VWS V14.01,2013-05-02 20:07:00,
2013-05-02 14:10:00,57.6,5.3,30.29,North,8,5.4,7.6,12,0.00,,---,0.00,VWS V14.01,2013-05-02 20:10:00,
2013-05-02 14:11:00,57.6,5.3,30.29,NNE,26,5.4,7.6,12,0.00,,---,0.00,VWS V14.01,2013-05-02 20:11:00,
2013-05-02 14:12:00,57.6,5.3,30.29,NNE,28,4.9,7.6,12,0.00,,---,0.00,VWS V14.01,2013-05-02 20:12:00,
2013-05-02 14:15:00,57.4,5.2,30.29,North,353,3.1,4.9,12,0.00,,---,0.00,VWS V14.01,2013-05-02 20:15:00,
2013-05-02 14:16:00,57.4,5.2,30.29,North,6,4.0,4.9,12,0.00,,---,0.00,VWS V14.01,2013-05-02 20:16:00,
2013-05-02 14:18:00,57.4,5.2,30.29,NW,316,2.7,4.9,12,0.00,,---,0.00,VWS V14.01,2013-05-02 20:18:00,
2013-05-02 14:21:00,57.7,5.5,30.29,NNW,328,3.1,6.3,12,0.00,,---,0.00,VWS V14.01,2013-05-02 20:21:00,
2013-05-02 14:23:00,57.7,5.5,30.29,North,357,3.1,6.3,12,0.00,,---,0.00,VWS V14.01,2013-05-02 20:23:00,
2013-05-02 14:26:00,57.9,5.6,30.29,NNW,335,2.7,6.3,12,0.00,,---,0.00,VWS V14.01,2013-05-02 20:26:00,
2013-05-02 14:28:00,58.1,5.8,30.29,North,8,2.7,6.3,12,0.00,,---,0.00,VWS V14.01,2013-05-02 20:28:00,
2013-05-02 14:31:00,58.1,5.8,30.29,ENE,57,2.7,4.0,12,0.00,,---,0.00,VWS V14.01,2013-05-02 20:31:00,
2013-05-02 14:32:00,58.1,5.8,30.29,ENE,67,2.7,4.0,12,0.00,,---,0.00,VWS V14.01,2013-05-02 20:32:00,
2013-05-02 14:33:00,58.3,5.9,30.29,ENE,60,2.2,5.4,12,0.00,,---,0.00,VWS V14.01,2013-05-02 20:33:00,
2013-05-02 14:36:00,58.3,5.9,30.29,NNE,17,4.0,5.8,12,0.00,,---,0.00,VWS V14.01,2013-05-02 20:36:00,
2013-05-02 14:37:00,58.3,5.9,30.29,NE,36,4.0,5.8,12,0.00,,---,0.00,VWS V14.01,2013-05-02 20:37:00,
2013-05-02 14:39:00,58.1,5.8,30.29,NE,45,5.4,6.3,12,0.00,,---,0.00,VWS V14.01,2013-05-02 20:39:00,
2013-05-02 14:41:00,58.1,5.8,30.29,NNW,328,2.7,6.3,12,0.00,,---,0.00,VWS V14.01,2013-05-02 20:41:00,
2013-05-02 14:42:00,58.1,5.8,30.29,NW,316,3.6,6.3,12,0.00,,---,0.00,VWS V14.01,2013-05-02 20:42:00,
2013-05-02 14:44:00,58.1,5.8,30.29,North,357,5.4,6.3,12,0.00,,---,0.00,VWS V14.01,2013-05-02 20:44:00,
2013-05-02 14:47:00,58.3,5.9,30.26,NNE,31,3.1,5.4,12,0.00,,---,0.00,VWS V14.01,2013-05-02 20:47:00,
2013-05-02 14:49:00,58.5,6.1,30.26,North,349,5.8,8.7,12,0.00,,---,0.00,VWS V14.01,2013-05-02 20:49:00,
2013-05-02 14:52:00,58.1,5.8,30.26,ENE,57,0.0,8.7,12,0.00,,---,0.00,VWS V14.01,2013-05-02 20:52:00,
2013-05-02 14:53:00,57.9,5.6,30.26,North,0,3.6,8.7,12,0.00,,---,0.00,VWS V14.01,2013-05-02 20:53:00,
2013-05-02 14:54:00,57.9,5.6,30.26,North,6,3.6,8.7,12,0.00,,---,0.00,VWS V14.01,2013-05-02 20:54:00,
2013-05-02 14:57:00,57.7,5.5,30.26,ENE,73,2.7,8.7,12,0.00,,---,0.00,VWS V14.01,2013-05-02 20:57:00,
2013-05-02 14:59:00,57.9,5.6,30.26,NNE,14,3.1,8.7,12,0.00,,---,0.00,VWS V14.01,2013-05-02 20:59:00,
2013-05-02 15:02:00,58.5,6.1,30.26,NW,309,3.1,4.9,12,0.00,,---,0.00,VWS V14.01,2013-05-02 21:02:00,
2013-05-02 15:03:00,58.5,6.1,30.26,West,280,4.9,4.9,12,0.00,,---,0.00,VWS V14.01,2013-05-02 21:03:00,
2013-05-02 15:05:00,58.5,6.1,30.26,West,281,3.1,4.9,12,0.00,,---,0.00,VWS V14.01,2013-05-02 21:05:00,
2013-05-02 15:07:00,58.5,6.1,30.26,ESE,106,2.7,4.9,12,0.00,,---,0.00,VWS V14.01,2013-05-02 21:07:00,
2013-05-02 15:08:00,58.5,6.1,30.26,ESE,106,2.7,4.9,12,0.00,,---,0.00,VWS V14.01,2013-05-02 21:08:00,
2013-05-02 15:10:00,58.5,6.1,30.26,North,9,5.8,5.8,12,0.00,,---,0.00,VWS V14.01,2013-05-02 21:10:00,
2013-05-02 15:13:00,58.5,6.1,30.26,NNE,17,2.2,8.1,12,0.00,,---,0.00,VWS V14.01,2013-05-02 21:13:00,
2013-05-02 15:15:00,58.6,6.2,30.26,East,99,4.9,4.9,12,0.00,,---,0.00,VWS V14.01,2013-05-02 21:15:00,
2013-05-02 15:18:00,59.0,6.5,30.26,SE,132,4.0,5.4,12,0.00,,---,0.00,VWS V14.01,2013-05-02 21:18:00,
2013-05-02 15:19:00,59.2,6.6,30.26,East,94,5.4,5.8,12,0.00,,---,0.00,VWS V14.01,2013-05-02 21:19:00,
2013-05-02 15:20:00,59.2,6.6,30.26,ESE,105,3.1,5.8,12,0.00,,---,0.00,VWS V14.01,2013-05-02 21:20:00,
2013-05-02 15:21:00,59.4,6.8,30.26,SE,128,2.7,5.8,12,0.00,,---,0.00,VWS V14.01,2013-05-02 21:21:00,
2013-05-02 15:23:00,59.5,6.9,30.26,East,94,2.2,5.8,12,0.00,,---,0.00,VWS V14.01,2013-05-02 21:23:00,
2013-05-02 15:24:00,59.5,6.9,30.26,East,91,2.2,5.8,12,0.00,,---,0.00,VWS V14.01,2013-05-02 21:24:00,
2013-05-02 15:25:00,59.7,7.0,30.26,ESE,102,2.7,5.8,12,0.00,,---,0.00,VWS V14.01,2013-05-02 21:25:00,
2013-05-02 15:26:00,59.9,7.2,30.26,ESE,106,4.9,5.8,12,0.00,,---,0.00,VWS V14.01,2013-05-02 21:26:00,
2013-05-02 15:28:00,60.1,7.3,30.26,East,82,0.0,5.8,12,0.00,,---,0.00,VWS V14.01,2013-05-02 21:28:00,
2013-05-02 15:29:00,60.1,7.3,30.26,ESE,112,3.1,5.8,12,0.00,,---,0.00,VWS V14.01,2013-05-02 21:29:00,
2013-05-02 15:30:00,60.3,7.5,30.26,SE,128,2.7,4.9,12,0.00,,---,0.00,VWS V14.01,2013-05-02 21:30:00,
2013-05-02 15:32:00,60.3,7.5,30.26,NNE,31,5.4,5.8,12,0.00,,---,0.00,VWS V14.01,2013-05-02 21:32:00,
2013-05-02 15:33:00,60.3,7.5,30.26,NE,36,3.6,5.8,12,0.00,,---,0.00,VWS V14.01,2013-05-02 21:33:00,
2013-05-02 15:34:00,60.1,7.3,30.26,ENE,76,2.2,5.8,12,0.00,,---,0.00,VWS V14.01,2013-05-02 21:34:00,
2013-05-02 15:35:00,59.7,7.0,30.26,East,97,5.4,5.8,12,0.00,,---,0.00,VWS V14.01,2013-05-02 21:35:00,
2013-05-02 15:37:00,59.7,7.0,30.26,ENE,61,2.7,5.8,12,0.00,,---,0.00,VWS V14.01,2013-05-02 21:37:00,
2013-05-02 15:38:00,59.9,7.2,30.26,NNE,21,5.8,5.8,12,0.00,,---,0.00,VWS V14.01,2013-05-02 21:38:00,
2013-05-02 15:39:00,60.1,7.3,30.26,North,0,5.4,5.8,12,0.00,,---,0.00,VWS V14.01,2013-05-02 21:39:00,
2013-05-02 15:40:00,60.3,7.5,30.26,North,0,4.9,6.3,12,0.00,,---,0.00,VWS V14.01,2013-05-02 21:40:00,
2013-05-02 15:42:00,60.4,7.6,30.26,North,7,3.1,6.3,12,0.00,,---,0.00,VWS V14.01,2013-05-02 21:42:00,
2013-05-02 15:43:00,60.6,7.8,30.26,NNE,12,2.2,6.3,12,0.00,,---,0.00,VWS V14.01,2013-05-02 21:43:00,
2013-05-02 15:44:00,60.6,7.8,30.26,North,4,5.8,6.3,12,0.00,,---,0.00,VWS V14.01,2013-05-02 21:44:00,
2013-05-02 15:45:00,60.6,7.8,30.26,NNE,12,3.1,6.3,12,0.00,,---,0.00,VWS V14.01,2013-05-02 21:45:00,
2013-05-02 15:46:00,60.6,7.8,30.26,NNE,22,4.9,6.3,12,0.00,,---,0.00,VWS V14.01,2013-05-02 21:46:00,
2013-05-02 15:48:00,60.6,7.8,30.26,North,0,4.0,6.3,12,0.00,,---,0.00,VWS V14.01,2013-05-02 21:48:00,
2013-05-02 15:49:00,60.6,7.8,30.26,North,0,4.0,6.3,12,0.00,,---,0.00,VWS V14.01,2013-05-02 21:49:00,
2013-05-02 15:50:00,60.6,7.8,30.26,WNW,291,4.0,6.3,12,0.00,,---,0.00,VWS V14.01,2013-05-02 21:50:00,
2013-05-02 15:51:00,60.6,7.8,30.26,WNW,284,2.7,6.3,12,0.00,,---,0.00,VWS V14.01,2013-05-02 21:51:00,
2013-05-02 15:53:00,60.6,7.8,30.26,NNE,33,8.1,8.1,12,0.00,,---,0.00,VWS V14.01,2013-05-02 21:53:00,
2013-05-02 15:54:00,60.6,7.8,30.26,North,353,4.0,8.1,12,0.00,,---,0.00,VWS V14.01,2013-05-02 21:54:00,
2013-05-02 15:55:00,60.6,7.8,30.26,NNW,342,3.1,8.1,12,0.00,,---,0.00,VWS V14.01,2013-05-02 21:55:00,
2013-05-02 15:56:00,60.6,7.8,30.26,NNE,18,2.2,8.1,12,0.00,,---,0.00,VWS V14.01,2013-05-02 21:56:00,
2013-05-02 15:58:00,60.6,7.8,30.26,North,357,2.7,8.1,12,0.00,,---,0.00,VWS V14.01,2013-05-02 21:58:00,
2013-05-02 15:59:00,60.6,7.8,30.26,West,276,2.7,8.1,12,0.00,,---,0.00,VWS V14.01,2013-05-02 21:59:00,
2013-05-02 16:00:00,60.8,6.0,30.26,West,276,2.2,2.7,11,0.00,,---,0.00,VWS V14.01,2013-05-02 22:00:00,
2013-05-02 16:01:00,60.8,6.0,30.23,NNW,328,2.7,3.6,11,0.00,,---,0.00,VWS V14.01,2013-05-02 22:01:00,
2013-05-02 16:03:00,61.0,6.1,30.23,NNE,17,2.7,5.4,11,0.00,,---,0.00,VWS V14.01,2013-05-02 22:03:00,
2013-05-02 16:04:00,61.0,6.1,30.23,NNE,17,2.2,5.4,11,0.00,,---,0.00,VWS V14.01,2013-05-02 22:04:00,
2013-05-02 16:05:00,61.0,6.1,30.23,WNW,295,3.6,5.4,11,0.00,,---,0.00,VWS V14.01,2013-05-02 22:05:00,
2013-05-02 16:07:00,61.0,6.1,30.23,NW,325,3.6,5.4,11,0.00,,---,0.00,VWS V14.01,2013-05-02 22:07:00,
2013-05-02 16:08:00,61.3,6.4,30.23,North,9,2.7,5.4,11,0.00,,---,0.00,VWS V14.01,2013-05-02 22:08:00,
2013-05-02 16:09:00,61.3,6.4,30.23,NW,314,2.7,5.4,11,0.00,,---,0.00,VWS V14.01,2013-05-02 22:09:00,
2013-05-02 16:10:00,61.5,6.5,30.23,NNW,343,4.0,5.4,11,0.00,,---,0.00,VWS V14.01,2013-05-02 22:10:00,
2013-05-02 16:12:00,61.7,6.7,30.23,West,265,2.7,5.4,11,0.00,,---,0.00,VWS V14.01,2013-05-02 22:12:00,
2013-05-02 16:14:00,62.2,7.1,30.23,SE,142,3.6,5.4,11,0.00,,---,0.00,VWS V14.01,2013-05-02 22:14:00,
2013-05-02 16:15:00,62.2,7.1,30.23,WNW,282,3.6,5.4,11,0.00,,---,0.00,VWS V14.01,2013-05-02 22:15:00,
2013-05-02 16:17:00,62.4,7.2,30.23,SW,226,2.7,5.4,11,0.00,,---,0.00,VWS V14.01,2013-05-02 22:17:00,
2013-05-02 16:19:00,62.8,7.5,30.23,NNW,333,3.6,5.4,11,0.00,,---,0.00,VWS V14.01,2013-05-02 22:19:00,
2013-05-02 16:20:00,63.0,7.7,30.23,North,357,4.9,5.8,11,0.00,,---,0.00,VWS V14.01,2013-05-02 22:20:00,
2013-05-02 16:22:00,63.0,7.7,30.23,NW,307,4.0,5.8,11,0.00,,---,0.00,VWS V14.01,2013-05-02 22:22:00,
2013-05-02 16:24:00,63.1,7.8,30.23,North,9,7.6,7.6,11,0.00,,---,0.00,VWS V14.01,2013-05-02 22:24:00,
2013-05-02 16:25:00,63.1,7.8,30.23,North,3,8.3,8.3,11,0.00,,---,0.00,VWS V14.01,2013-05-02 22:25:00,
2013-05-02 16:26:00,63.1,7.8,30.23,North,357,5.4,8.3,11,0.00,,---,0.00,VWS V14.01,2013-05-02 22:26:00,
2013-05-02 16:27:00,62.8,7.5,30.23,NW,318,3.6,8.3,11,0.00,,---,0.00,VWS V14.01,2013-05-02 22:27:00,
2013-05-02 16:30:00,63.0,7.7,30.23,NW,309,4.0,8.3,11,0.00,,---,0.00,VWS V14.01,2013-05-02 22:30:00,
2013-05-02 16:31:00,63.0,7.7,30.23,NW,312,5.8,5.8,11,0.00,,---,0.00,VWS V14.01,2013-05-02 22:31:00,
2013-05-02 16:32:00,63.1,7.8,30.23,NNW,334,3.6,5.8,11,0.00,,---,0.00,VWS V14.01,2013-05-02 22:32:00,
2013-05-02 16:35:00,63.3,7.9,30.23,West,274,2.2,6.3,11,0.00,,---,0.00,VWS V14.01,2013-05-02 22:35:00,
2013-05-02 16:36:00,63.5,8.1,30.23,WNW,293,2.2,6.3,11,0.00,,---,0.00,VWS V14.01,2013-05-02 22:36:00,
2013-05-02 16:37:00,63.7,8.2,30.23,NNW,344,3.6,6.3,11,0.00,,---,0.00,VWS V14.01,2013-05-02 22:37:00,
2013-05-02 16:40:00,63.1,7.8,30.23,North,357,5.8,8.7,11,0.00,,---,0.00,VWS V14.01,2013-05-02 22:40:00,
2013-05-02 16:41:00,63.1,7.8,30.23,NW,316,3.1,8.7,11,0.00,,---,0.00,VWS V14.01,2013-05-02 22:41:00,
2013-05-02 16:42:00,63.0,7.7,30.23,North,4,4.9,8.7,11,0.00,,---,0.00,VWS V14.01,2013-05-02 22:42:00,
2013-05-02 16:45:00,63.0,7.7,30.23,WNW,299,3.1,3.1,11,0.00,,---,0.00,VWS V14.01,2013-05-02 22:45:00,
2013-05-02 16:46:00,63.0,7.7,30.23,North,0,2.7,5.4,11,0.00,,---,0.00,VWS V14.01,2013-05-02 22:46:00,
2013-05-02 16:47:00,63.0,7.7,30.23,NW,323,4.9,5.8,11,0.00,,---,0.00,VWS V14.01,2013-05-02 22:47:00,
2013-05-02 16:50:00,63.1,7.8,30.23,West,272,3.1,7.6,11,0.00,,---,0.00,VWS V14.01,2013-05-02 22:50:00,
2013-05-02 16:51:00,63.1,7.8,30.23,West,276,4.9,7.6,11,0.00,,---,0.00,VWS V14.01,2013-05-02 22:51:00,
2013-05-02 16:52:00,63.1,7.8,30.23,West,275,3.1,7.6,11,0.00,,---,0.00,VWS V14.01,2013-05-02 22:52:00,
2013-05-02 16:55:00,63.5,8.1,30.23,WNW,292,2.7,7.6,11,0.00,,---,0.00,VWS V14.01,2013-05-02 22:55:00,
2013-05-02 16:56:00,63.5,8.1,30.23,WNW,292,2.7,7.6,11,0.00,,---,0.00,VWS V14.01,2013-05-02 22:56:00,
2013-05-02 16:57:00,63.7,8.2,30.23,West,279,2.7,7.6,11,0.00,,---,0.00,VWS V14.01,2013-05-02 22:57:00,
2013-05-02 17:01:00,64.0,8.5,30.23,West,264,2.7,3.6,11,0.00,,---,0.00,VWS V14.01,2013-05-02 23:01:00,
2013-05-02 17:02:00,64.0,8.5,30.23,SSW,213,7.2,7.2,11,0.00,,---,0.00,VWS V14.01,2013-05-02 23:02:00,
2013-05-02 17:06:00,64.2,8.6,30.23,West,281,2.7,7.2,11,0.00,,---,0.00,VWS V14.01,2013-05-02 23:06:00,
2013-05-02 17:07:00,64.4,6.7,30.23,West,281,0.0,7.2,10,0.00,,---,0.00,VWS V14.01,2013-05-02 23:07:00,
2013-05-02 17:11:00,64.6,6.8,30.23,NNW,330,4.9,7.2,10,0.00,,---,0.00,VWS V14.01,2013-05-02 23:11:00,
2013-05-02 17:12:00,64.4,6.7,30.23,SW,234,4.0,7.2,10,0.00,,---,0.00,VWS V14.01,2013-05-02 23:12:00,
2013-05-02 17:13:00,64.4,6.7,30.23,NW,310,2.7,7.2,10,0.00,,---,0.00,VWS V14.01,2013-05-02 23:13:00,
2013-05-02 17:16:00,64.6,6.8,30.20,North,6,3.6,4.0,10,0.00,,---,0.00,VWS V14.01,2013-05-02 23:16:00,
2013-05-02 17:17:00,64.6,6.8,30.20,NNE,15,5.8,8.3,10,0.00,,---,0.00,VWS V14.01,2013-05-02 23:17:00,
2013-05-02 17:18:00,64.6,6.8,30.20,NW,320,3.6,8.3,10,0.00,,---,0.00,VWS V14.01,2013-05-02 23:18:00,
2013-05-02 17:21:00,64.4,6.7,30.20,WSW,245,2.7,8.3,10,0.00,,---,0.00,VWS V14.01,2013-05-02 23:21:00,
2013-05-02 17:22:00,64.4,6.7,30.20,NW,326,0.0,8.3,10,0.00,,---,0.00,VWS V14.01,2013-05-02 23:22:00,
2013-05-02 17:23:00,64.4,6.7,30.20,NNW,340,3.6,8.3,10,0.00,,---,0.00,VWS V14.01,2013-05-02 23:23:00,
2013-05-02 17:27:00,64.0,8.5,30.20,West,275,4.9,8.3,11,0.00,,---,0.00,VWS V14.01,2013-05-02 23:27:00,
2013-05-02 17:28:00,64.0,8.5,30.20,WNW,288,4.0,8.3,11,0.00,,---,0.00,VWS V14.01,2013-05-02 23:28:00,
2013-05-02 17:29:00,64.0,8.5,30.20,NW,311,2.7,8.3,11,0.00,,---,0.00,VWS V14.01,2013-05-02 23:29:00,
2013-05-02 17:32:00,64.2,8.6,30.20,West,279,3.6,5.8,11,0.00,,---,0.00,VWS V14.01,2013-05-02 23:32:00,
2013-05-02 17:33:00,64.2,8.6,30.20,West,279,4.9,5.8,11,0.00,,---,0.00,VWS V14.01,2013-05-02 23:33:00,
2013-05-02 17:34:00,64.2,8.6,30.20,West,265,3.6,5.8,11,0.00,,---,0.00,VWS V14.01,2013-05-02 23:34:00,
2013-05-02 17:37:00,64.4,6.7,30.20,SW,215,4.9,5.8,10,0.00,,---,0.00,VWS V14.01,2013-05-02 23:37:00,
2013-05-02 17:38:00,64.4,6.7,30.20,SSW,213,5.8,5.8,10,0.00,,---,0.00,VWS V14.01,2013-05-02 23:38:00,
2013-05-02 17:39:00,64.2,8.6,30.20,West,260,2.7,6.3,11,0.00,,---,0.00,VWS V14.01,2013-05-02 23:39:00,
2013-05-02 17:43:00,64.2,8.6,30.20,WNW,294,2.2,6.3,11,0.00,,---,0.00,VWS V14.01,2013-05-02 23:43:00,
2013-05-02 17:44:00,64.2,8.6,30.20,NNW,327,2.7,6.3,11,0.00,,---,0.00,VWS V14.01,2013-05-02 23:44:00,
2013-05-02 17:48:00,64.4,6.7,30.20,NNW,329,3.6,5.8,10,0.00,,---,0.00,VWS V14.01,2013-05-02 23:48:00,
2013-05-02 17:49:00,64.4,6.7,30.20,West,277,3.6,5.8,10,0.00,,---,0.00,VWS V14.01,2013-05-02 23:49:00,
2013-05-02 17:50:00,64.4,6.7,30.20,NW,304,3.1,5.8,10,0.00,,---,0.00,VWS V14.01,2013-05-02 23:50:00,
2013-05-02 17:53:00,64.4,6.7,30.20,NW,313,2.7,6.3,10,0.00,,---,0.00,VWS V14.01,2013-05-02 23:53:00,
2013-05-02 17:54:00,64.2,8.6,30.20,NNW,329,3.6,6.3,11,0.00,,---,0.00,VWS V14.01,2013-05-02 23:54:00,
2013-05-02 17:55:00,64.2,8.6,30.20,NW,325,2.2,6.3,11,0.00,,---,0.00,VWS V14.01,2013-05-02 23:55:00,
2013-05-02 17:58:00,63.9,8.4,30.20,WNW,288,4.0,6.3,11,0.00,,---,0.00,VWS V14.01,2013-05-02 23:58:00,
2013-05-02 17:59:00,63.9,8.4,30.20,WNW,288,3.6,6.3,11,0.00,,---,0.00,VWS V14.01,2013-05-02 23:59:00,
2013-05-02 18:03:00,64.0,8.5,30.20,NW,323,4.0,5.4,11,0.00,,---,0.00,VWS V14.01,2013-05-03 00:03:00,
2013-05-02 18:04:00,63.9,8.4,30.20,North,357,5.8,5.8,11,0.00,,---,0.00,VWS V14.01,2013-05-03 00:04:00,
2013-05-02 18:05:00,63.9,8.4,30.20,North,0,4.9,5.8,11,0.00,,---,0.00,VWS V14.01,2013-05-03 00:05:00,
2013-05-02 18:09:00,63.7,8.2,30.20,West,279,6.3,6.3,11,0.00,,---,0.00,VWS V14.01,2013-05-03 00:09:00,
2013-05-02 18:10:00,63.9,8.4,30.20,West,271,4.0,6.3,11,0.00,,---,0.00,VWS V14.01,2013-05-03 00:10:00,
2013-05-02 18:14:00,63.9,8.4,30.20,North,0,4.0,6.3,11,0.00,,---,0.00,VWS V14.01,2013-05-03 00:14:00,
2013-05-02 18:15:00,64.0,8.5,30.20,NW,324,4.0,6.3,11,0.00,,---,0.00,VWS V14.01,2013-05-03 00:15:00,
2013-05-02 18:19:00,64.0,8.5,30.20,NNW,348,3.1,4.0,11,0.00,,---,0.00,VWS V14.01,2013-05-03 00:19:00,
2013-05-02 18:20:00,64.0,8.5,30.20,NNW,336,4.0,4.0,11,0.00,,---,0.00,VWS V14.01,2013-05-03 00:20:00,
2013-05-02 18:24:00,63.9,8.4,30.20,NW,322,3.6,4.9,11,0.00,,---,0.00,VWS V14.01,2013-05-03 00:24:00,
2013-05-02 18:25:00,63.9,8.4,30.20,NW,317,3.6,4.9,11,0.00,,---,0.00,VWS V14.01,2013-05-03 00:25:00,
2013-05-02 18:26:00,63.7,8.2,30.20,NNW,332,3.6,4.9,11,0.00,,---,0.00,VWS V14.01,2013-05-03 00:26:00,
2013-05-02 18:29:00,63.1,7.8,30.20,North,353,4.9,6.3,11,0.00,,---,0.00,VWS V14.01,2013-05-03 00:29:00,
2013-05-02 18:30:00,63.1,7.8,30.20,North,0,2.2,6.3,11,0.00,,---,0.00,VWS V14.01,2013-05-03 00:30:00,
2013-05-02 18:31:00,62.8,7.5,30.20,NNW,345,2.7,2.7,11,0.00,,---,0.00,VWS V14.01,2013-05-03 00:31:00,
2013-05-02 18:35:00,62.1,7.0,30.20,West,265,2.7,4.0,11,0.00,,---,0.00,VWS V14.01,2013-05-03 00:35:00,
2013-05-02 18:36:00,61.9,6.8,30.20,WNW,285,3.1,4.0,11,0.00,,---,0.00,VWS V14.01,2013-05-03 00:36:00,
2013-05-02 18:37:00,61.9,6.8,30.20,West,277,4.9,4.9,11,0.00,,---,0.00,VWS V14.01,2013-05-03 00:37:00,
2013-05-02 18:40:00,61.5,6.5,30.20,WNW,299,2.7,4.9,11,0.00,,---,0.00,VWS V14.01,2013-05-03 00:40:00,
2013-05-02 18:41:00,61.3,6.4,30.20,NNW,331,3.6,5.4,11,0.00,,---,0.00,VWS V14.01,2013-05-03 00:41:00,
2013-05-02 18:42:00,61.3,6.4,30.20,NW,313,4.0,5.4,11,0.00,,---,0.00,VWS V14.01,2013-05-03 00:42:00,
2013-05-02 18:45:00,61.2,6.3,30.20,WNW,302,3.1,3.1,11,0.00,,---,0.00,VWS V14.01,2013-05-03 00:45:00,
2013-05-02 18:46:00,61.2,6.3,30.20,WNW,302,2.7,3.6,11,0.00,,---,0.00,VWS V14.01,2013-05-03 00:46:00,
2013-05-02 18:47:00,61.0,6.1,30.20,WNW,301,2.2,3.6,11,0.00,,---,0.00,VWS V14.01,2013-05-03 00:47:00,
2013-05-02 18:50:00,61.0,6.1,30.20,NW,308,3.6,4.0,11,0.00,,---,0.00,VWS V14.01,2013-05-03 00:50:00,
2013-05-02 18:51:00,61.0,6.1,30.20,NW,311,2.7,4.0,11,0.00,,---,0.00,VWS V14.01,2013-05-03 00:51:00,
2013-05-02 18:52:00,61.0,6.1,30.20,NNW,330,2.7,5.4,11,0.00,,---,0.00,VWS V14.01,2013-05-03 00:52:00,
2013-05-02 18:55:00,61.0,6.1,30.20,WNW,297,3.6,5.4,11,0.00,,---,0.00,VWS V14.01,2013-05-03 00:55:00,
2013-05-02 18:56:00,61.0,6.1,30.20,WNW,299,3.1,5.4,11,0.00,,---,0.00,VWS V14.01,2013-05-03 00:56:00,
2013-05-02 18:57:00,60.8,6.0,30.20,WNW,303,3.6,5.4,11,0.00,,---,0.00,VWS V14.01,2013-05-03 00:57:00,
2013-05-02 19:01:00,60.6,7.8,30.20,NW,306,3.1,4.9,12,0.00,,---,0.00,VWS V14.01,2013-05-03 01:01:00,
2013-05-02 19:02:00,60.6,7.8,30.20,NNW,331,2.7,4.9,12,0.00,,---,0.00,VWS V14.01,2013-05-03 01:02:00,
2013-05-02 19:03:00,60.6,7.8,30.20,WNW,283,2.7,4.9,12,0.00,,---,0.00,VWS V14.01,2013-05-03 01:03:00,
2013-05-02 19:06:00,60.4,7.6,30.20,NW,324,3.6,5.8,12,0.00,,---,0.00,VWS V14.01,2013-05-03 01:06:00,
2013-05-02 19:07:00,60.4,7.6,30.20,NW,307,4.9,5.8,12,0.00,,---,0.00,VWS V14.01,2013-05-03 01:07:00,
2013-05-02 19:08:00,60.4,7.6,30.20,NW,312,3.6,5.8,12,0.00,,---,0.00,VWS V14.01,2013-05-03 01:08:00,
2013-05-02 19:11:00,60.3,7.5,30.20,North,353,2.7,5.8,12,0.00,,---,0.00,VWS V14.01,2013-05-03 01:11:00,
2013-05-02 19:12:00,60.3,7.5,30.20,NNW,334,4.0,5.8,12,0.00,,---,0.00,VWS V14.01,2013-05-03 01:12:00,
2013-05-02 19:13:00,60.3,7.5,30.20,NW,312,3.6,5.8,12,0.00,,---,0.00,VWS V14.01,2013-05-03 01:13:00,
2013-05-02 19:16:00,60.1,7.3,30.20,NW,324,0.0,3.6,12,0.00,,---,0.00,VWS V14.01,2013-05-03 01:16:00,
2013-05-02 19:17:00,60.1,7.3,30.20,NW,324,2.7,3.6,12,0.00,,---,0.00,VWS V14.01,2013-05-03 01:17:00,
2013-05-02 19:18:00,60.1,7.3,30.20,NW,325,0.0,3.6,12,0.00,,---,0.00,VWS V14.01,2013-05-03 01:18:00,
2013-05-02 19:21:00,59.9,7.2,30.20,NNW,332,4.0,4.0,12,0.00,,---,0.00,VWS V14.01,2013-05-03 01:21:00,
2013-05-02 19:22:00,59.7,7.0,30.20,North,0,7.6,7.6,12,0.00,,---,0.00,VWS V14.01,2013-05-03 01:22:00,
2013-05-02 19:23:00,59.7,7.0,30.20,NNW,341,4.9,8.3,12,0.00,,---,0.00,VWS V14.01,2013-05-03 01:23:00,
2013-05-02 19:26:00,59.5,6.9,30.20,North,353,5.4,8.3,12,0.00,,---,0.00,VWS V14.01,2013-05-03 01:26:00,
2013-05-02 19:27:00,59.5,6.9,30.20,NW,320,3.6,8.3,12,0.00,,---,0.00,VWS V14.01,2013-05-03 01:27:00,
2013-05-02 19:28:00,59.4,6.8,30.20,North,0,3.1,8.3,12,0.00,,---,0.00,VWS V14.01,2013-05-03 01:28:00,
2013-05-02 19:31:00,59.2,6.6,30.20,NW,316,3.1,3.6,12,0.00,,---,0.00,VWS V14.01,2013-05-03 01:31:00,
2013-05-02 19:32:00,59.0,6.5,30.20,NNW,346,4.9,4.9,12,0.00,,---,0.00,VWS V14.01,2013-05-03 01:32:00,
2013-05-02 19:33:00,59.0,6.5,30.20,NNW,346,3.1,4.9,12,0.00,,---,0.00,VWS V14.01,2013-05-03 01:33:00,
2013-05-02 19:37:00,58.6,6.2,30.20,NNW,345,4.5,5.4,12,0.00,,---,0.00,VWS V14.01,2013-05-03 01:37:00,
2013-05-02 19:38:00,58.6,6.2,30.20,North,350,5.4,5.4,12,0.00,,---,0.00,VWS V14.01,2013-05-03 01:38:00,
2013-05-02 19:39:00,58.6,6.2,30.20,NNW,340,3.6,5.4,12,0.00,,---,0.00,VWS V14.01,2013-05-03 01:39:00,
2013-05-02 19:42:00,58.5,6.1,30.20,NW,322,4.0,5.8,12,0.00,,---,0.00,VWS V14.01,2013-05-03 01:42:00,
2013-05-02 19:43:00,58.3,5.9,30.20,NW,316,2.7,5.8,12,0.00,,---,0.00,VWS V14.01,2013-05-03 01:43:00,
2013-05-02 19:44:00,58.3,5.9,30.20,NW,320,3.6,5.8,12,0.00,,---,0.00,VWS V14.01,2013-05-03 01:44:00,
2013-05-02 19:47:00,58.1,5.8,30.20,NW,320,3.1,3.6,12,0.00,,---,0.00,VWS V14.01,2013-05-03 01:47:00,
2013-05-02 19:48:00,58.1,5.8,30.20,NW,322,2.7,3.6,12,0.00,,---,0.00,VWS V14.01,2013-05-03 01:48:00,
2013-05-02 19:49:00,57.9,5.6,30.20,NW,325,2.7,4.0,12,0.00,,---,0.00,VWS V14.01,2013-05-03 01:49:00,
2013-05-02 19:50:00,57.9,5.6,30.20,NW,319,3.6,4.0,12,0.00,,---,0.00,VWS V14.01,2013-05-03 01:50:00,
2013-05-02 19:52:00,57.7,5.5,30.20,NW,316,2.2,4.0,12,0.00,,---,0.00,VWS V14.01,2013-05-03 01:52:00,
2013-05-02 19:53:00,57.7,5.5,30.20,NW,316,2.7,4.0,12,0.00,,---,0.00,VWS V14.01,2013-05-03 01:53:00,
2013-05-02 19:54:00,57.6,5.3,30.20,NW,310,2.7,4.0,12,0.00,,---,0.00,VWS V14.01,2013-05-03 01:54:00,
2013-05-02 19:55:00,57.6,5.3,30.20,NW,310,2.2,4.0,12,0.00,,---,0.00,VWS V14.01,2013-05-03 01:55:00,
2013-05-02 19:57:00,57.4,5.2,30.20,NW,310,2.7,4.0,12,0.00,,---,0.00,VWS V14.01,2013-05-03 01:57:00,
2013-05-02 19:58:00,57.2,5.1,30.20,WNW,286,4.0,4.0,12,0.00,,---,0.00,VWS V14.01,2013-05-03 01:58:00,
2013-05-02 19:59:00,57.0,4.9,30.20,WNW,284,3.1,4.9,12,0.00,,---,0.00,VWS V14.01,2013-05-03 01:59:00,
2013-05-02 20:00:00,57.0,4.9,30.20,WNW,295,3.6,3.6,12,0.00,,---,0.00,VWS V14.01,2013-05-03 02:00:00,
2013-05-02 20:02:00,56.8,4.8,30.20,WNW,299,2.2,3.6,12,0.00,,---,0.00,VWS V14.01,2013-05-03 02:02:00,
2013-05-02 20:03:00,56.8,4.8,30.20,WNW,292,2.2,3.6,12,0.00,,---,0.00,VWS V14.01,2013-05-03 02:03:00,
2013-05-02 20:04:00,56.8,4.8,30.20,WNW,292,2.7,3.6,12,0.00,,---,0.00,VWS V14.01,2013-05-03 02:04:00,
2013-05-02 20:05:00,56.7,4.6,30.20,West,278,0.0,3.6,12,0.00,,---,0.00,VWS V14.01,2013-05-03 02:05:00,
2013-05-02 20:07:00,56.5,4.5,30.20,West,276,0.0,3.6,12,0.00,,---,0.00,VWS V14.01,2013-05-03 02:07:00,
2013-05-02 20:09:00,56.3,4.4,30.20,WNW,286,2.7,3.6,12,0.00,,---,0.00,VWS V14.01,2013-05-03 02:09:00,
2013-05-02 20:10:00,56.1,4.2,30.20,WNW,286,0.0,3.6,12,0.00,,---,0.00,VWS V14.01,2013-05-03 02:10:00,
2013-05-02 20:11:00,56.1,4.2,30.20,WNW,286,2.7,3.6,12,0.00,,---,0.00,VWS V14.01,2013-05-03 02:11:00,
2013-05-02 20:13:00,55.9,4.1,30.20,WNW,282,0.0,4.0,12,0.00,,---,0.00,VWS V14.01,2013-05-03 02:13:00,
2013-05-02 20:14:00,55.9,4.1,30.20,WNW,282,0.0,4.0,12,0.00,,---,0.00,VWS V14.01,2013-05-03 02:14:00,
2013-05-02 20:15:00,55.9,4.1,30.20,WNW,282,0.0,0.0,12,0.00,,---,0.00,VWS V14.01,2013-05-03 02:15:00,
2013-05-02 20:16:00,55.6,3.8,30.20,West,278,2.7,2.7,12,0.00,,---,0.00,VWS V14.01,2013-05-03 02:16:00,
2013-05-02 20:18:00,55.4,-0.3,30.20,West,276,2.2,3.6,10,0.00,,---,0.00,VWS V14.01,2013-05-03 02:18:00,
2013-05-02 20:19:00,55.4,-0.3,30.20,West,276,3.6,3.6,10,0.00,,---,0.00,VWS V14.01,2013-05-03 02:19:00,
2013-05-02 20:21:00,55.2,-0.4,30.20,West,278,0.0,3.6,10,0.00,,---,0.00,VWS V14.01,2013-05-03 02:21:00,
2013-05-02 20:24:00,55.0,5.1,30.20,West,277,0.0,3.6,13,0.00,,---,0.00,VWS V14.01,2013-05-03 02:24:00,
2013-05-02 20:26:00,54.7,-0.8,30.20,WNW,285,2.2,3.6,10,0.00,,---,0.00,VWS V14.01,2013-05-03 02:26:00,
2013-05-02 20:27:00,54.7,-0.8,30.20,WNW,285,2.2,3.6,10,0.00,,---,0.00,VWS V14.01,2013-05-03 02:27:00,
2013-05-02 20:29:00,54.5,-0.9,30.20,WNW,285,2.7,4.0,10,0.00,,---,0.00,VWS V14.01,2013-05-03 02:29:00,
2013-05-02 20:30:00,54.5,-0.9,30.20,WNW,285,2.2,4.0,10,0.00,,---,0.00,VWS V14.01,2013-05-03 02:30:00,
2013-05-02 20:32:00,54.3,-1.1,30.17,WNW,285,0.0,2.2,10,0.00,,---,0.00,VWS V14.01,2013-05-03 02:32:00,
2013-05-02 20:34:00,54.1,-1.2,30.17,WNW,290,2.7,2.7,10,0.00,,---,0.00,VWS V14.01,2013-05-03 02:34:00,
2013-05-02 20:35:00,54.1,-1.2,30.17,WNW,290,2.2,2.7,10,0.00,,---,0.00,VWS V14.01,2013-05-03 02:35:00,
2013-05-02 20:37:00,54.0,-1.4,30.17,WNW,297,2.7,3.1,10,0.00,,---,0.00,VWS V14.01,2013-05-03 02:37:00,
2013-05-02 20:38:00,54.0,-1.4,30.17,WNW,297,2.7,3.1,10,0.00,,---,0.00,VWS V14.01,2013-05-03 02:38:00,
2013-05-02 20:39:00,53.8,-1.5,30.17,WNW,302,3.1,4.0,10,0.00,,---,0.00,VWS V14.01,2013-05-03 02:39:00,
2013-05-02 20:40:00,53.8,-1.5,30.17,NW,305,4.0,4.0,10,0.00,,---,0.00,VWS V14.01,2013-05-03 02:40:00,
2013-05-02 20:42:00,53.8,-1.5,30.17,WNW,283,2.2,4.0,10,0.00,,---,0.00,VWS V14.01,2013-05-03 02:42:00,
2013-05-02 20:43:00,54.0,-1.4,30.17,WNW,283,4.0,4.0,10,0.00,,---,0.00,VWS V14.01,2013-05-03 02:43:00,
2013-05-02 20:44:00,54.0,-1.4,30.17,WNW,282,3.1,4.0,10,0.00,,---,0.00,VWS V14.01,2013-05-03 02:44:00,
2013-05-02 20:45:00,54.0,-1.4,30.17,WNW,285,4.0,4.0,10,0.00,,---,0.00,VWS V14.01,2013-05-03 02:45:00,
2013-05-02 20:46:00,54.0,-1.4,30.17,WNW,284,3.1,4.0,10,0.00,,---,0.00,VWS V14.01,2013-05-03 02:46:00,
2013-05-02 20:47:00,54.0,-1.4,30.17,WNW,289,3.1,4.0,10,0.00,,---,0.00,VWS V14.01,2013-05-03 02:47:00,
2013-05-02 20:48:00,54.0,-1.4,30.17,WNW,290,3.1,4.0,10,0.00,,---,0.00,VWS V14.01,2013-05-03 02:48:00,
2013-05-02 20:50:00,54.1,-1.2,30.17,WNW,297,4.0,4.0,10,0.00,,---,0.00,VWS V14.01,2013-05-03 02:50:00,
2013-05-02 20:51:00,54.1,-1.2,30.17,WNW,300,3.6,4.0,10,0.00,,---,0.00,VWS V14.01,2013-05-03 02:51:00,
2013-05-02 20:52:00,54.1,-1.2,30.17,West,275,3.1,4.0,10,0.00,,---,0.00,VWS V14.01,2013-05-03 02:52:00,
2013-05-02 20:53:00,54.1,-1.2,30.17,WNW,293,3.1,4.0,10,0.00,,---,0.00,VWS V14.01,2013-05-03 02:53:00,
2013-05-02 20:55:00,54.3,-1.1,30.17,WNW,285,4.0,4.0,10,0.00,,---,0.00,VWS V14.01,2013-05-03 02:55:00,
2013-05-02 20:56:00,54.3,-1.1,30.17,WNW,290,2.2,4.0,10,0.00,,---,0.00,VWS V14.01,2013-05-03 02:56:00,
2013-05-02 20:57:00,54.3,-1.1,30.17,WNW,297,3.1,4.0,10,0.00,,---,0.00,VWS V14.01,2013-05-03 02:57:00,
2013-05-02 20:58:00,54.3,-1.1,30.17,WNW,296,4.0,4.0,10,0.00,,---,0.00,VWS V14.01,2013-05-03 02:58:00,
2013-05-02 21:00:00,54.3,-1.1,30.17,WNW,286,3.6,3.6,10,0.00,,---,0.00,VWS V14.01,2013-05-03 03:00:00,
2013-05-02 21:01:00,54.3,-1.1,30.20,West,280,3.6,4.0,10,0.00,,---,0.00,VWS V14.01,2013-05-03 03:01:00,
2013-05-02 21:02:00,54.3,-1.1,30.20,WNW,303,3.1,5.4,10,0.00,,---,0.00,VWS V14.01,2013-05-03 03:02:00,
2013-05-02 21:04:00,54.3,-1.1,30.20,WNW,287,2.7,5.4,10,0.00,,---,0.00,VWS V14.01,2013-05-03 03:04:00,
2013-05-02 21:06:00,54.5,-0.9,30.20,WNW,293,2.7,5.4,10,0.00,,---,0.00,VWS V14.01,2013-05-03 03:06:00,
2013-05-02 21:07:00,54.5,-0.9,30.20,West,279,2.7,5.4,10,0.00,,---,0.00,VWS V14.01,2013-05-03 03:07:00,
2013-05-02 21:09:00,54.3,-1.1,30.20,West,278,4.0,5.4,10,0.00,,---,0.00,VWS V14.01,2013-05-03 03:09:00,
2013-05-02 21:11:00,54.3,-1.1,30.20,West,279,3.6,5.4,10,0.00,,---,0.00,VWS V14.01,2013-05-03 03:11:00,
2013-05-02 21:12:00,54.1,-1.2,30.20,WNW,288,4.0,5.4,10,0.00,,---,0.00,VWS V14.01,2013-05-03 03:12:00,
2013-05-02 21:13:00,54.1,-1.2,30.20,West,279,3.6,5.4,10,0.00,,---,0.00,VWS V14.01,2013-05-03 03:13:00,
2013-05-02 21:14:00,54.1,-1.2,30.20,WNW,284,4.0,5.4,10,0.00,,---,0.00,VWS V14.01,2013-05-03 03:14:00,
2013-05-02 21:16:00,54.0,-1.4,30.17,WNW,284,3.1,3.6,10,0.00,,---,0.00,VWS V14.01,2013-05-03 03:16:00,
2013-05-02 21:17:00,53.8,-1.5,30.17,WNW,284,2.7,3.6,10,0.00,,---,0.00,VWS V14.01,2013-05-03 03:17:00,
2013-05-02 21:18:00,53.8,-1.5,30.17,WNW,288,2.7,3.6,10,0.00,,---,0.00,VWS V14.01,2013-05-03 03:18:00,
2013-05-02 21:20:00,53.6,-1.6,30.17,West,278,4.9,4.9,10,0.00,,---,0.00,VWS V14.01,2013-05-03 03:20:00,
2013-05-02 21:21:00,53.4,0.2,30.17,West,279,3.1,4.9,11,0.00,,---,0.00,VWS V14.01,2013-05-03 03:21:00,
2013-05-02 21:22:00,53.4,0.2,30.17,WNW,284,4.0,4.9,11,0.00,,---,0.00,VWS V14.01,2013-05-03 03:22:00,
2013-05-02 21:23:00,53.2,0.1,30.17,WNW,285,3.1,4.9,11,0.00,,---,0.00,VWS V14.01,2013-05-03 03:23:00,
2013-05-02 21:25:00,53.1,-0.1,30.17,WNW,284,4.0,4.9,11,0.00,,---,0.00,VWS V14.01,2013-05-03 03:25:00,
2013-05-02 21:26:00,53.1,-0.1,30.17,WNW,284,4.0,4.9,11,0.00,,---,0.00,VWS V14.01,2013-05-03 03:26:00,
2013-05-02 21:27:00,53.1,-0.1,30.17,West,276,0.0,4.9,11,0.00,,---,0.00,VWS V14.01,2013-05-03 03:27:00,
2013-05-02 21:30:00,52.9,-0.2,30.17,West,276,2.2,4.9,11,0.00,,---,0.00,VWS V14.01,2013-05-03 03:30:00,
2013-05-02 21:31:00,52.7,-0.3,30.17,West,276,3.6,3.6,11,0.00,,---,0.00,VWS V14.01,2013-05-03 03:31:00,
2013-05-02 21:32:00,52.7,-0.3,30.17,West,276,2.2,3.6,11,0.00,,---,0.00,VWS V14.01,2013-05-03 03:32:00,
2013-05-02 21:35:00,52.7,-0.3,30.17,WNW,283,2.7,3.6,11,0.00,,---,0.00,VWS V14.01,2013-05-03 03:35:00,
2013-05-02 21:36:00,52.7,-0.3,30.17,West,271,0.0,4.5,11,0.00,,---,0.00,VWS V14.01,2013-05-03 03:36:00,
2013-05-02 21:37:00,52.7,-0.3,30.17,West,274,3.1,4.5,11,0.00,,---,0.00,VWS V14.01,2013-05-03 03:37:00,
2013-05-02 21:40:00,52.9,-0.2,30.17,WNW,283,2.7,4.5,11,0.00,,---,0.00,VWS V14.01,2013-05-03 03:40:00,
2013-05-02 21:41:00,52.9,-0.2,30.17,WNW,297,0.0,4.5,11,0.00,,---,0.00,VWS V14.01,2013-05-03 03:41:00,
2013-05-02 21:42:00,52.9,-0.2,30.17,WNW,297,0.0,4.5,11,0.00,,---,0.00,VWS V14.01,2013-05-03 03:42:00,
2013-05-02 21:45:00,52.7,-0.3,30.17,WNW,297,2.7,2.7,11,0.00,,---,0.00,VWS V14.01,2013-05-03 03:45:00,
2013-05-02 21:47:00,52.7,-0.3,30.20,West,279,3.6,4.9,11,0.00,,---,0.00,VWS V14.01,2013-05-03 03:47:00,
2013-05-02 21:48:00,52.7,-0.3,30.20,West,275,3.6,4.9,11,0.00,,---,0.00,VWS V14.01,2013-05-03 03:48:00,
2013-05-02 21:50:00,53.1,-0.1,30.20,NW,320,3.6,4.9,11,0.00,,---,0.00,VWS V14.01,2013-05-03 03:50:00,
2013-05-02 21:52:00,53.1,-0.1,30.20,NW,314,2.2,4.9,11,0.00,,---,0.00,VWS V14.01,2013-05-03 03:52:00,
2013-05-02 21:53:00,53.1,-0.1,30.20,NW,305,2.7,4.9,11,0.00,,---,0.00,VWS V14.01,2013-05-03 03:53:00,
2013-05-02 21:55:00,53.1,-0.1,30.20,WNW,292,2.7,4.9,11,0.00,,---,0.00,VWS V14.01,2013-05-03 03:55:00,
2013-05-02 21:57:00,53.1,-0.1,30.20,WNW,293,0.0,4.9,11,0.00,,---,0.00,VWS V14.01,2013-05-03 03:57:00,
2013-05-02 21:58:00,52.9,-0.2,30.20,WNW,293,2.2,4.9,11,0.00,,---,0.00,VWS V14.01,2013-05-03 03:58:00,
2013-05-02 22:00:00,52.7,-0.3,30.20,WNW,293,2.7,2.7,11,0.00,,---,0.00,VWS V14.01,2013-05-03 04:00:00,
2013-05-02 22:01:00,52.7,-0.3,30.20,WNW,293,2.7,2.7,11,0.00,,---,0.00,VWS V14.01,2013-05-03 04:01:00,
2013-05-02 22:02:00,52.5,-0.5,30.20,WNW,293,2.2,3.1,11,0.00,,---,0.00,VWS V14.01,2013-05-03 04:02:00,
2013-05-02 22:06:00,52.0,-0.9,30.20,WNW,293,0.0,3.1,11,0.00,,---,0.00,VWS V14.01,2013-05-03 04:06:00,
2013-05-02 22:07:00,52.0,-0.9,30.20,WNW,293,0.0,3.1,11,0.00,,---,0.00,VWS V14.01,2013-05-03 04:07:00,
2013-05-02 22:11:00,51.4,-1.3,30.20,West,269,0.0,3.1,11,0.00,,---,0.00,VWS V14.01,2013-05-03 04:11:00,
2013-05-02 22:12:00,51.4,-1.3,30.20,West,269,0.0,3.1,11,0.00,,---,0.00,VWS V14.01,2013-05-03 04:12:00,
2013-05-02 22:16:00,50.7,-1.9,30.20,West,269,0.0,0.0,11,0.00,,---,0.00,VWS V14.01,2013-05-03 04:16:00,
2013-05-02 22:17:00,50.4,-2.2,30.20,West,269,0.0,0.0,11,0.00,,---,0.00,VWS V14.01,2013-05-03 04:17:00,
2013-05-02 22:21:00,49.8,-2.6,30.20,West,269,0.0,0.0,11,0.00,,---,0.00,VWS V14.01,2013-05-03 04:21:00,
2013-05-02 22:22:00,49.8,-2.6,30.20,West,269,0.0,0.0,11,0.00,,---,0.00,VWS V14.01,2013-05-03 04:22:00,
2013-05-02 22:23:00,49.6,-2.7,30.20,West,269,0.0,0.0,11,0.00,,---,0.00,VWS V14.01,2013-05-03 04:23:00,
2013-05-02 22:26:00,49.6,-2.7,30.20,West,269,0.0,0.0,11,0.00,,---,0.00,VWS V14.01,2013-05-03 04:26:00,
2013-05-02 22:27:00,49.6,-2.7,30.20,West,269,0.0,0.0,11,0.00,,---,0.00,VWS V14.01,2013-05-03 04:27:00,
2013-05-02 22:28:00,49.6,-2.7,30.20,West,269,0.0,0.0,11,0.00,,---,0.00,VWS V14.01,2013-05-03 04:28:00,
2013-05-02 22:31:00,49.6,-2.7,30.20,West,269,0.0,2.2,11,0.00,,---,0.00,VWS V14.01,2013-05-03 04:31:00,
2013-05-02 22:32:00,49.6,-2.7,30.20,West,269,2.7,2.7,11,0.00,,---,0.00,VWS V14.01,2013-05-03 04:32:00,
2013-05-02 22:33:00,49.6,-2.7,30.20,West,269,0.0,2.7,11,0.00,,---,0.00,VWS V14.01,2013-05-03 04:33:00,
2013-05-02 22:37:00,49.8,-2.6,30.20,West,278,2.2,2.7,11,0.00,,---,0.00,VWS V14.01,2013-05-03 04:37:00,
2013-05-02 22:38:00,50.0,-2.4,30.20,West,278,2.2,2.7,11,0.00,,---,0.00,VWS V14.01,2013-05-03 04:38:00,
2013-05-02 22:39:00,50.0,-2.4,30.20,WNW,282,2.2,2.7,11,0.00,,---,0.00,VWS V14.01,2013-05-03 04:39:00,
2013-05-02 22:42:00,50.0,-2.4,30.20,West,280,2.2,3.6,11,0.00,,---,0.00,VWS V14.01,2013-05-03 04:42:00,
2013-05-02 22:43:00,50.2,-2.3,30.20,West,281,2.7,3.6,11,0.00,,---,0.00,VWS V14.01,2013-05-03 04:43:00,
2013-05-02 22:44:00,50.2,-2.3,30.20,WNW,283,2.2,3.6,11,0.00,,---,0.00,VWS V14.01,2013-05-03 04:44:00,
2013-05-02 22:47:00,50.2,-2.3,30.20,WNW,283,0.0,2.2,11,0.00,,---,0.00,VWS V14.01,2013-05-03 04:47:00,
2013-05-02 22:48:00,50.2,-2.3,30.20,WNW,283,0.0,2.2,11,0.00,,---,0.00,VWS V14.01,2013-05-03 04:48:00,
2013-05-02 22:49:00,50.0,-2.4,30.20,WNW,283,0.0,2.2,11,0.00,,---,0.00,VWS V14.01,2013-05-03 04:49:00,
2013-05-02 22:52:00,49.6,-2.7,30.20,WNW,283,0.0,2.2,11,0.00,,---,0.00,VWS V14.01,2013-05-03 04:52:00,
2013-05-02 22:53:00,49.5,-2.9,30.20,WNW,283,0.0,2.2,11,0.00,,---,0.00,VWS V14.01,2013-05-03 04:53:00,
2013-05-02 22:54:00,49.3,-3.0,30.20,WNW,283,0.0,2.2,11,0.00,,---,0.00,VWS V14.01,2013-05-03 04:54:00,
2013-05-02 22:57:00,48.7,-3.4,30.20,WNW,283,0.0,2.2,11,0.00,,---,0.00,VWS V14.01,2013-05-03 04:57:00,
2013-05-02 22:58:00,48.7,-3.4,30.20,WNW,283,0.0,2.2,11,0.00,,---,0.00,VWS V14.01,2013-05-03 04:58:00,
2013-05-02 22:59:00,48.4,-3.7,30.20,WNW,283,0.0,2.2,11,0.00,,---,0.00,VWS V14.01,2013-05-03 04:59:00,
2013-05-02 23:02:00,47.5,-2.6,30.20,West,276,0.0,0.0,12,0.00,,---,0.00,VWS V14.01,2013-05-03 05:02:00,
2013-05-02 23:03:00,47.5,-2.6,30.20,West,276,0.0,0.0,12,0.00,,---,0.00,VWS V14.01,2013-05-03 05:03:00,
2013-05-02 23:04:00,47.1,-2.9,30.20,West,276,0.0,0.0,12,0.00,,---,0.00,VWS V14.01,2013-05-03 05:04:00,
2013-05-02 23:07:00,46.4,-3.4,30.20,West,276,0.0,0.0,12,0.00,,---,0.00,VWS V14.01,2013-05-03 05:07:00,
2013-05-02 23:08:00,46.4,-3.4,30.20,West,276,0.0,0.0,12,0.00,,---,0.00,VWS V14.01,2013-05-03 05:08:00,
2013-05-02 23:10:00,45.9,-3.9,30.20,West,276,0.0,0.0,12,0.00,,---,0.00,VWS V14.01,2013-05-03 05:10:00,
2013-05-02 23:13:00,45.3,-4.3,30.20,West,272,2.2,2.7,12,0.00,,---,0.00,VWS V14.01,2013-05-03 05:13:00,
2013-05-02 23:14:00,45.1,-4.4,30.20,West,272,0.0,2.7,12,0.00,,---,0.00,VWS V14.01,2013-05-03 05:14:00,
2013-05-02 23:15:00,45.0,-4.6,30.20,West,272,2.2,2.2,12,0.00,,---,0.00,VWS V14.01,2013-05-03 05:15:00,
2013-05-02 23:18:00,44.4,-3.3,30.20,West,272,2.2,2.7,13,0.00,,---,0.00,VWS V14.01,2013-05-03 05:18:00,
2013-05-02 23:19:00,44.4,-3.3,30.20,West,272,0.0,2.7,13,0.00,,---,0.00,VWS V14.01,2013-05-03 05:19:00,
2013-05-02 23:20:00,44.2,-3.5,30.20,South,188,2.7,2.7,13,0.00,,---,0.00,VWS V14.01,2013-05-03 05:20:00,
2013-05-02 23:23:00,44.1,-3.6,30.20,South,173,2.2,2.7,13,0.00,,---,0.00,VWS V14.01,2013-05-03 05:23:00,
2013-05-02 23:24:00,43.9,-3.8,30.20,South,173,2.2,2.7,13,0.00,,---,0.00,VWS V14.01,2013-05-03 05:24:00,
2013-05-02 23:25:00,43.9,-3.8,30.20,South,173,2.2,2.7,13,0.00,,---,0.00,VWS V14.01,2013-05-03 05:25:00,
2013-05-02 23:28:00,43.5,-4.1,30.20,South,173,0.0,2.7,13,0.00,,---,0.00,VWS V14.01,2013-05-03 05:28:00,
2013-05-02 23:29:00,43.5,-4.1,30.20,South,173,2.2,2.7,13,0.00,,---,0.00,VWS V14.01,2013-05-03 05:29:00,
2013-05-02 23:30:00,43.3,-4.2,30.20,South,173,0.0,0.0,13,0.00,,---,0.00,VWS V14.01,2013-05-03 05:30:00,
2013-05-02 23:33:00,43.0,-1.5,30.20,South,173,2.7,2.7,15,0.00,,---,0.00,VWS V14.01,2013-05-03 05:33:00,
2013-05-02 23:34:00,43.0,-1.5,30.20,South,173,2.2,2.7,15,0.00,,---,0.00,VWS V14.01,2013-05-03 05:34:00,
2013-05-02 23:35:00,42.8,-1.6,30.20,South,173,2.2,2.7,15,0.00,,---,0.00,VWS V14.01,2013-05-03 05:35:00,
2013-05-02 23:39:00,42.8,-1.6,30.20,South,173,2.2,2.7,15,0.00,,---,0.00,VWS V14.01,2013-05-03 05:39:00,
2013-05-02 23:40:00,42.8,-1.6,30.20,South,173,0.0,2.7,15,0.00,,---,0.00,VWS V14.01,2013-05-03 05:40:00,
2013-05-02 23:44:00,42.6,-0.4,30.20,South,181,2.2,3.6,16,0.00,,---,0.00,VWS V14.01,2013-05-03 05:44:00,
2013-05-02 23:45:00,42.6,-0.4,30.20,South,181,0.0,0.0,16,0.00,,---,0.00,VWS V14.01,2013-05-03 05:45:00,
2013-05-02 23:49:00,42.8,-1.6,30.20,South,181,0.0,0.0,15,0.00,,---,0.00,VWS V14.01,2013-05-03 05:49:00,
2013-05-02 23:50:00,42.8,-1.6,30.20,South,181,0.0,0.0,15,0.00,,---,0.00,VWS V14.01,2013-05-03 05:50:00,
2013-05-02 23:54:00,42.8,-1.6,30.20,South,180,2.7,2.7,15,0.00,,---,0.00,VWS V14.01,2013-05-03 05:54:00,
2013-05-02 23:55:00,42.8,-1.6,30.20,South,179,2.2,2.7,15,0.00,,---,0.00,VWS V14.01,2013-05-03 05:55:00,
2013-05-02 23:56:00,42.8,-1.6,30.20,South,179,0.0,2.7,15,0.00,,---,0.00,VWS V14.01,2013-05-03 05:56:00,